M I D A S
Marine Information and Data Acquisition System
Tripno 2166 of the Zeeleeuw from 2011-08-18 06:46:36 to 2011-08-18 17:00:00
Back to CruiseResearch ActivitiesStationsMapUnderway DataData graphs

EquipmentUnitsComment
TimeDGPSUTC
LatitudeDGPSDM.mWGS84
LongitudeDGPSDM.mWGS84
TemperatureSBE03/SBE38deg celciusITS90
ConductivitySBE21S/mITS90
SalinitySBE21 Practical Salinity Units
ChlorophylAChelsea fluorimeterg/lCalibrated in Aceton
Missing or incorrect values are displayed as -999
Sea surface data collected by the RV Zeeleeuw from 2011-08-18 06:30:54 to 2011-08-18 13:55:43
                                                                                    Next 1000 lines
Time Latitude Longitude Temperature Conductivity Salinity ChlorophylA
2011-08-18 06:31:04 51°13.636 2°56.018 22.2077 0.015568 0.084021 -3.020363
2011-08-18 06:31:09 51°13.636 2°56.019 22.2112 0.015568 0.084021 -3.020363
2011-08-18 06:31:14 51°13.635 2°56.019 22.2108 0.015568 0.084022 -3.020363
2011-08-18 06:31:19 51°13.636 2°56.018 22.2055 0.015568 0.084022 -3.020363
2011-08-18 06:31:23 51°13.635 2°56.018 22.2036 0.015568 0.084022 -3.020363
2011-08-18 06:31:29 51°13.635 2°56.018 22.2096 0.015568 0.084022 -3.020363
2011-08-18 06:31:34 51°13.635 2°56.018 22.2086 0.015568 0.084022 -3.020363
2011-08-18 06:31:39 51°13.635 2°56.018 22.2097 0.015568 0.084023 -3.020363
2011-08-18 06:31:43 51°13.635 2°56.018 22.2111 0.015568 0.084023 -3.020363
2011-08-18 06:31:49 51°13.635 2°56.018 22.2123 0.015568 0.084023 -3.020363
2011-08-18 06:31:54 51°13.635 2°56.018 22.2151 0.015568 0.084023 -3.020363
2011-08-18 06:31:59 51°13.635 2°56.018 22.2163 0.015568 0.084023 -3.020363
2011-08-18 06:32:03 51°13.635 2°56.018 22.2167 0.015568 0.084023 -3.020363
2011-08-18 06:32:09 51°13.635 2°56.018 22.2183 0.015568 0.084023 -3.020363
2011-08-18 06:32:14 51°13.635 2°56.018 22.2148 0.015568 0.084024 -3.020363
2011-08-18 06:32:19 51°13.634 2°56.018 22.2104 0.015568 0.084024 -3.020363
2011-08-18 06:32:23 51°13.634 2°56.018 22.2139 0.015568 0.084025 -3.020363
2011-08-18 06:32:29 51°13.634 2°56.017 22.2118 0.015568 0.084025 -3.020363
2011-08-18 06:32:34 51°13.634 2°56.016 22.2086 0.015568 0.084025 -3.020363
2011-08-18 06:32:39 51°13.635 2°56.014 22.153 0.015568 0.084025 -3.020363
2011-08-18 06:32:44 51°13.635 2°56.012 22.1924 0.015568 0.084025 -3.020363
2011-08-18 06:32:48 51°13.635 2°56.009 22.1661 0.015568 0.084027 -3.020363
2011-08-18 06:32:54 51°13.636 2°56.004 22.2065 0.015568 0.084027 -3.020363
2011-08-18 06:32:59 51°13.637 2°56 22.1867 0.015568 0.084027 -3.020363
2011-08-18 06:33:03 51°13.638 2°55.995 22.1992 0.015568 0.084027 -3.020363
2011-08-18 06:33:10 51°13.64 2°55.987 22.1804 0.015568 0.084027 -3.020363
2011-08-18 06:33:16 51°13.641 2°55.979 22.2 0.015568 0.084028 -3.020363
2011-08-18 06:33:21 51°13.643 2°55.972 22.2005 0.015568 0.084028 -3.020363
2011-08-18 06:33:27 51°13.645 2°55.963 22.2206 0.015568 0.084028 -3.020363
2011-08-18 06:33:32 51°13.647 2°55.955 22.2286 0.015568 0.084028 -3.020363
2011-08-18 06:33:37 51°13.649 2°55.947 22.2395 0.015568 0.084028 -3.020363
2011-08-18 06:33:42 51°13.652 2°55.939 22.2243 0.015568 0.084029 -3.020363
2011-08-18 06:33:47 51°13.655 2°55.931 22.2227 0.015568 0.084028 -3.020363
2011-08-18 06:33:52 51°13.657 2°55.923 22.2216 0.015568 0.084029 -3.020363
2011-08-18 06:33:57 51°13.66 2°55.914 22.2219 0.015568 0.084029 -3.020363
2011-08-18 06:34:02 51°13.663 2°55.905 22.2065 0.015568 0.084029 -3.020363
2011-08-18 06:34:07 51°13.667 2°55.897 22.2094 0.015568 0.08403 -3.020363
2011-08-18 06:34:12 51°13.67 2°55.889 22.2281 0.015568 0.08403 -3.020363
2011-08-18 06:34:18 51°13.675 2°55.878 22.2393 0.015568 0.08403 -3.020363
2011-08-18 06:34:22 51°13.678 2°55.872 22.2371 0.015568 0.08403 -3.020363
2011-08-18 06:34:27 51°13.683 2°55.863 22.2351 0.015568 0.084032 -3.020363
2011-08-18 06:34:32 51°13.687 2°55.855 22.2302 0.015568 0.084032 -3.020363
2011-08-18 06:34:37 51°13.691 2°55.847 22.233 0.015568 0.084032 -3.020363
2011-08-18 06:34:42 51°13.696 2°55.839 22.2172 0.015568 0.084032 -3.020363
2011-08-18 06:34:47 51°13.701 2°55.831 22.2123 0.015568 0.084032 -3.020363
2011-08-18 06:34:52 51°13.706 2°55.823 22.216 0.015568 0.084033 -3.020363
2011-08-18 06:34:57 51°13.711 2°55.815 22.2208 0.015568 0.084033 -3.020363
2011-08-18 06:35:03 51°13.717 2°55.805 22.2296 0.015568 0.084033 -3.020363
2011-08-18 06:35:07 51°13.722 2°55.799 22.2295 0.015568 0.084033 -3.020363
2011-08-18 06:35:12 51°13.727 2°55.79 22.2223 0.015568 0.084033 -3.020363
2011-08-18 06:35:17 51°13.732 2°55.782 22.2272 0.015568 0.084033 -3.020363
2011-08-18 06:35:22 51°13.737 2°55.773 22.1955 0.015568 0.084034 -3.020363
2011-08-18 06:35:27 51°13.742 2°55.764 22.2375 0.015568 0.084034 -3.020363
2011-08-18 06:35:32 51°13.747 2°55.756 22.221 0.015568 0.084034 -3.020363
2011-08-18 06:35:37 51°13.752 2°55.746 22.2369 0.015568 0.084034 -3.020363
2011-08-18 06:35:42 51°13.757 2°55.738 22.2317 0.015568 0.084034 -3.020363
2011-08-18 06:35:47 51°13.762 2°55.729 22.2379 0.015568 0.084035 -3.020363
2011-08-18 06:35:52 51°13.768 2°55.721 22.1898 0.015568 0.084035 -3.020363
2011-08-18 06:35:57 51°13.773 2°55.712 22.2418 0.015568 0.084036 -3.020363
2011-08-18 06:36:02 51°13.779 2°55.704 22.251 0.015568 0.084036 -3.020363
2011-08-18 06:36:07 51°13.784 2°55.696 22.2361 0.015568 0.084036 -3.020363
2011-08-18 06:36:12 51°13.79 2°55.689 22.24 0.015568 0.084036 -3.020363
2011-08-18 06:36:17 51°13.796 2°55.681 22.2354 0.015568 0.084038 -3.020363
2011-08-18 06:36:22 51°13.803 2°55.674 22.2602 0.015568 0.084038 -3.020363
2011-08-18 06:36:27 51°13.809 2°55.667 22.2456 0.015568 0.084038 -3.020363
2011-08-18 06:36:32 51°13.815 2°55.661 22.229 0.015568 0.084038 -3.020363
2011-08-18 06:36:37 51°13.822 2°55.655 22.2309 0.015568 0.084038 -3.020363
2011-08-18 06:36:42 51°13.828 2°55.65 22.2404 0.015568 0.084039 -3.020363
2011-08-18 06:36:47 51°13.836 2°55.645 22.2062 0.015568 0.084039 -3.020363
2011-08-18 06:36:52 51°13.842 2°55.641 22.2339 0.015568 0.084039 -3.020363
2011-08-18 06:36:57 51°13.849 2°55.638 22.2337 0.015568 0.08404 -3.020363
2011-08-18 06:37:02 51°13.856 2°55.635 22.2318 0.015568 0.08404 -3.020363
2011-08-18 06:37:07 51°13.863 2°55.633 22.2312 0.015568 0.08404 -3.020363
2011-08-18 06:37:12 51°13.87 2°55.631 22.2383 0.015568 0.084041 -3.020363
2011-08-18 06:37:17 51°13.877 2°55.631 22.2613 0.015568 0.084041 -3.020363
2011-08-18 06:37:22 51°13.883 2°55.63 22.2457 0.015568 0.084041 -3.020363
2011-08-18 06:37:27 51°13.889 2°55.631 22.2546 0.015568 0.084041 -3.020363
2011-08-18 06:37:32 51°13.894 2°55.631 22.2329 0.015568 0.084041 -3.020363
2011-08-18 06:37:37 51°13.899 2°55.632 22.2563 0.015568 0.084041 -3.020363
2011-08-18 06:37:42 51°13.904 2°55.633 22.2528 0.015568 0.084043 -3.020363
2011-08-18 06:37:47 51°13.909 2°55.634 22.2545 0.015568 0.084043 -3.020363
2011-08-18 06:37:52 51°13.913 2°55.635 22.2435 0.015568 0.084043 -3.020363
2011-08-18 06:37:57 51°13.918 2°55.637 22.2355 0.015568 0.084043 -3.020363
2011-08-18 06:38:02 51°13.922 2°55.638 22.2522 0.015568 0.084043 -3.020363
2011-08-18 06:38:07 51°13.925 2°55.64 22.2339 0.015568 0.084044 -3.020363
2011-08-18 06:38:12 51°13.929 2°55.641 22.2466 0.015568 0.084044 -3.020363
2011-08-18 06:38:17 51°13.932 2°55.643 22.2355 0.015568 0.084044 -3.020363
2011-08-18 06:38:22 51°13.936 2°55.645 22.2432 0.015568 0.084045 -3.020363
2011-08-18 06:38:27 51°13.938 2°55.647 22.2455 0.015568 0.084045 -3.020363
2011-08-18 06:38:32 51°13.941 2°55.649 22.2395 0.015568 0.084045 -3.020363
2011-08-18 06:38:37 51°13.944 2°55.651 22.2303 0.015568 0.084045 -3.020363
2011-08-18 06:38:42 51°13.947 2°55.653 22.2406 0.015568 0.084046 -3.020363
2011-08-18 06:38:47 51°13.949 2°55.655 22.2448 0.015568 0.084046 -3.020363
2011-08-18 06:38:51 51°13.951 2°55.657 22.2366 0.015568 0.084046 -3.020363
2011-08-18 06:38:57 51°13.954 2°55.659 22.2463 0.015568 0.084047 -3.020363
2011-08-18 06:39:02 51°13.957 2°55.661 22.2662 0.015568 0.084047 -3.020363
2011-08-18 06:39:07 51°13.958 2°55.663 22.2657 0.015568 0.084047 -3.020363
2011-08-18 06:39:11 51°13.959 2°55.663 22.2734 0.015568 0.084049 -3.020363
2011-08-18 06:39:16 51°13.96 2°55.663 22.2602 0.015568 0.084049 -3.020363
2011-08-18 06:39:21 51°13.96 2°55.662 22.2204 0.015568 0.084049 -3.020363
2011-08-18 06:39:26 51°13.96 2°55.659 22.2056 0.015568 0.084049 -3.020363
2011-08-18 06:39:31 51°13.959 2°55.655 22.1253 0.015568 0.084049 -3.020363
2011-08-18 06:39:35 51°13.959 2°55.651 22.0738 0.015568 0.084049 -3.020363
2011-08-18 06:39:40 51°13.959 2°55.645 22.0601 0.015568 0.084049 -3.020363
2011-08-18 06:39:45 51°13.959 2°55.639 22.0967 0.015568 0.08405 -3.020363
2011-08-18 06:39:50 51°13.96 2°55.631 22.0698 0.015568 0.08405 -3.020363
2011-08-18 06:39:55 51°13.962 2°55.623 22.0787 0.015568 0.08405 -3.020363
2011-08-18 06:39:59 51°13.964 2°55.617 22.0779 0.015568 0.08405 -3.020363
2011-08-18 06:40:05 51°13.968 2°55.607 22.1409 0.015568 0.08405 -3.020363
2011-08-18 06:40:10 51°13.972 2°55.599 22.1899 0.015568 0.084051 -3.020363
2011-08-18 06:40:15 51°13.977 2°55.59 22.1935 0.015568 0.084051 -3.020363
2011-08-18 06:40:19 51°13.982 2°55.583 22.1959 0.015568 0.084051 -3.020363
2011-08-18 06:40:24 51°13.988 2°55.574 22.1976 0.015568 0.084052 -3.020363
2011-08-18 06:40:29 51°13.995 2°55.565 22.1886 0.015568 0.084052 -3.020363
2011-08-18 06:40:34 51°14.002 2°55.555 22.1703 0.015568 0.084052 -3.020363
2011-08-18 06:40:39 51°14.01 2°55.546 22.185 0.015568 0.084052 -3.020363
2011-08-18 06:40:43 51°14.017 2°55.539 22.192 0.015568 0.084054 -3.020363
2011-08-18 06:40:49 51°14.027 2°55.528 22.1978 0.015568 0.084054 -3.020363
2011-08-18 06:40:54 51°14.036 2°55.519 22.2025 0.015568 0.084054 -3.020363
2011-08-18 06:40:59 51°14.045 2°55.509 22.2023 0.015568 0.084054 -3.020363
2011-08-18 06:41:04 51°14.055 2°55.5 22.1893 0.015568 0.084055 -3.020363
2011-08-18 06:41:09 51°14.064 2°55.49 22.1944 0.015568 0.084055 -3.020363
2011-08-18 06:41:14 51°14.074 2°55.481 22.1994 0.015568 0.084056 -3.020363
2011-08-18 06:41:19 51°14.084 2°55.472 22.1999 0.015568 0.084056 -3.020363
2011-08-18 06:41:24 51°14.094 2°55.462 22.2141 0.015568 0.084056 -3.020363
2011-08-18 06:41:29 51°14.104 2°55.452 22.2132 0.015568 0.084056 -3.020363
2011-08-18 06:41:34 51°14.114 2°55.442 22.202 0.015568 0.084056 -3.020363
2011-08-18 06:41:39 51°14.124 2°55.432 22.2001 0.015568 0.084057 -3.020363
2011-08-18 06:41:43 51°14.132 2°55.424 22.1902 0.015568 0.084057 -3.020363
2011-08-18 06:41:49 51°14.144 2°55.412 22.1898 0.015568 0.084057 -3.020363
2011-08-18 06:41:54 51°14.155 2°55.402 22.2288 0.015568 0.084058 -3.020363
2011-08-18 06:41:59 51°14.165 2°55.392 22.2239 0.015568 0.084058 -3.020363
2011-08-18 06:42:04 51°14.175 2°55.382 22.2083 0.015568 0.084058 -3.020363
2011-08-18 06:42:09 51°14.185 2°55.372 22.202 0.015568 0.084058 -3.020363
2011-08-18 06:42:14 51°14.196 2°55.361 22.2079 0.015568 0.08406 -3.020363
2011-08-18 06:42:19 51°14.206 2°55.351 22.2229 0.015568 0.08406 -3.020363
2011-08-18 06:42:24 51°14.216 2°55.34 22.2155 0.015568 0.084061 -3.020363
2011-08-18 06:42:29 51°14.226 2°55.329 22.2294 0.015568 0.084061 -3.020363
2011-08-18 06:42:34 51°14.237 2°55.319 22.2215 0.015568 0.084061 -3.020363
2011-08-18 06:42:39 51°14.247 2°55.308 22.1899 0.015568 0.084061 -3.020363
2011-08-18 06:42:44 51°14.257 2°55.297 22.1851 0.015568 0.084061 -3.020363
2011-08-18 06:42:50 51°14.27 2°55.284 22.1968 0.015568 0.084061 -3.020363
2011-08-18 06:42:54 51°14.278 2°55.276 22.2179 0.015568 0.084062 -3.020363
2011-08-18 06:42:59 51°14.289 2°55.265 22.2314 0.015568 0.084062 -3.020363
2011-08-18 06:43:04 51°14.299 2°55.255 22.2195 0.015568 0.084062 -3.020363
2011-08-18 06:43:09 51°14.309 2°55.244 22.1985 0.015568 0.084062 -3.020363
2011-08-18 06:43:15 51°14.322 2°55.231 22.1851 0.015568 0.084062 -3.020363
2011-08-18 06:43:19 51°14.33 2°55.222 22.203 0.015568 0.084063 -3.020363
2011-08-18 06:43:24 51°14.341 2°55.212 22.2191 0.015568 0.084063 -3.020363
2011-08-18 06:43:29 51°14.352 2°55.202 22.2155 0.015568 0.084063 -3.020363
2011-08-18 06:43:34 51°14.362 2°55.192 22.2289 0.015568 0.084063 -3.020363
2011-08-18 06:43:39 51°14.373 2°55.182 22.2448 0.015568 0.084063 -3.020363
2011-08-18 06:43:43 51°14.382 2°55.174 22.2349 0.015568 0.084065 -3.020363
2011-08-18 06:43:49 51°14.394 2°55.162 22.2215 0.015568 0.084065 -3.020363
2011-08-18 06:43:54 51°14.405 2°55.151 22.22 0.015568 0.084065 -3.020363
2011-08-18 06:43:59 51°14.415 2°55.14 22.2462 0.015568 0.084065 -3.020363
2011-08-18 06:44:03 51°14.424 2°55.132 22.2133 0.015568 0.084066 -3.020363
2011-08-18 06:44:09 51°14.436 2°55.118 22.2108 0.015568 0.084066 -3.020363
2011-08-18 06:44:14 51°14.446 2°55.107 22.1978 0.015568 0.084066 -3.020363
2011-08-18 06:44:19 51°14.456 2°55.096 22.2366 0.015568 0.084066 -3.020363
2011-08-18 06:44:24 51°14.466 2°55.085 22.2007 0.015568 0.084067 -3.020363
2011-08-18 06:44:29 51°14.476 2°55.073 22.2278 0.015568 0.084067 -3.020363
2011-08-18 06:44:34 51°14.487 2°55.062 22.2342 0.015568 0.084067 -3.020363
2011-08-18 06:44:39 51°14.497 2°55.05 22.2291 0.015568 0.084067 -3.020363
2011-08-18 06:44:43 51°14.505 2°55.041 22.2306 0.015568 0.084068 -3.020363
2011-08-18 06:44:49 51°14.516 2°55.027 22.2162 0.015568 0.084067 -3.020363
2011-08-18 06:44:54 51°14.526 2°55.014 22.2222 0.015568 0.084068 -3.020363
2011-08-18 06:44:59 51°14.535 2°55.001 22.2404 0.015568 0.084068 -3.020363
2011-08-18 06:45:03 51°14.543 2°54.99 22.2174 0.015568 0.084069 -3.020363
2011-08-18 06:45:09 51°14.553 2°54.972 22.2553 0.015568 0.084069 -3.020363
2011-08-18 06:45:14 51°14.561 2°54.955 22.1389 0.015568 0.084069 -3.020363
2011-08-18 06:45:19 51°14.57 2°54.938 22.1368 0.015568 0.084069 -3.020363
2011-08-18 06:45:23 51°14.577 2°54.925 22.1947 0.015568 0.084069 -3.020363
2011-08-18 06:45:29 51°14.589 2°54.905 22.1665 0.015568 0.084069 -3.020363
2011-08-18 06:45:34 51°14.599 2°54.888 22.1842 0.015568 0.084071 -3.020363
2011-08-18 06:45:39 51°14.611 2°54.871 22.1716 0.015568 0.084071 -3.020363
2011-08-18 06:45:43 51°14.62 2°54.858 22.179 0.015568 0.084071 -3.020363
2011-08-18 06:45:49 51°14.634 2°54.838 22.1528 0.015568 0.084071 -3.020363
2011-08-18 06:45:54 51°14.646 2°54.822 22.1952 0.015568 0.084071 -3.020363
2011-08-18 06:45:59 51°14.658 2°54.806 22.1555 0.015568 0.084071 -3.020363
2011-08-18 06:46:03 51°14.668 2°54.792 22.1723 0.015568 0.084072 -3.020363
2011-08-18 06:46:09 51°14.684 2°54.772 22.183 0.015568 0.084072 -3.020363
2011-08-18 06:46:14 51°14.697 2°54.756 22.1698 0.015568 0.084073 -3.020363
2011-08-18 06:46:19 51°14.71 2°54.739 22.1729 0.015568 0.084073 -3.020363
2011-08-18 06:46:23 51°14.721 2°54.726 22.1429 0.015568 0.084073 -3.020363
2011-08-18 06:46:29 51°14.737 2°54.706 22.1697 0.015568 0.084073 -3.020363
2011-08-18 06:46:34 51°14.752 2°54.69 22.1636 0.015568 0.084074 -3.020363
2011-08-18 06:46:39 51°14.766 2°54.674 22.155 0.015568 0.084073 -3.020363
2011-08-18 06:46:43 51°14.777 2°54.661 22.1527 0.015568 0.084074 -3.020363
2011-08-18 06:46:49 51°14.794 2°54.642 22.1001 0.015568 0.084074 -3.020363
2011-08-18 06:46:54 51°14.809 2°54.626 22.1451 0.015568 0.084074 -3.020363
2011-08-18 06:46:59 51°14.823 2°54.61 22.1603 0.015568 0.084074 -3.020363
2011-08-18 06:47:03 51°14.835 2°54.598 22.1762 0.015568 0.084076 -3.020363
2011-08-18 06:47:09 51°14.853 2°54.579 22.1717 0.015568 0.084077 -3.020363
2011-08-18 06:47:14 51°14.867 2°54.564 22.1684 0.015568 0.084076 -3.020363
2011-08-18 06:47:19 51°14.882 2°54.548 22.1782 0.015568 0.084077 -3.020363
2011-08-18 06:47:23 51°14.893 2°54.534 22.1685 0.015466 0.083546 -3.020363
2011-08-18 06:47:28 51°14.907 2°54.518 22.1744 0.015466 0.083546 -3.020363
2011-08-18 06:47:34 51°14.924 2°54.498 22.171 0.015466 0.083546 -3.020363
2011-08-18 06:47:39 51°14.938 2°54.48 22.1719 0.015568 0.084078 -3.020363
2011-08-18 06:47:44 51°14.952 2°54.462 22.1735 0.015568 0.084079 -3.020363
2011-08-18 06:47:49 51°14.965 2°54.445 22.1523 0.015466 0.083547 -3.020363
2011-08-18 06:47:54 51°14.979 2°54.427 22.1474 0.015568 0.084079 -3.020363
2011-08-18 06:47:59 51°14.993 2°54.41 22.1509 0.015568 0.084079 -3.020363
2011-08-18 06:48:03 51°15.004 2°54.396 22.1957 0.015466 0.083549 -3.020363
2011-08-18 06:48:09 51°15.02 2°54.375 22.175 0.015466 0.083547 -3.020363
2011-08-18 06:48:14 51°15.033 2°54.355 22.1005 0.015466 0.083547 -3.020363
2011-08-18 06:48:19 51°15.047 2°54.337 22.1378 0.015466 0.083549 -3.020363
2011-08-18 06:48:24 51°15.06 2°54.318 22.1578 0.015466 0.08355 -3.020363
2011-08-18 06:48:29 51°15.073 2°54.301 22.1599 0.015466 0.08355 -3.020363
2011-08-18 06:48:34 51°15.087 2°54.283 22.1586 0.015466 0.083551 -3.020363
2011-08-18 06:48:39 51°15.1 2°54.264 22.1731 0.015466 0.08355 -3.020363
2011-08-18 06:48:44 51°15.113 2°54.246 22.1318 0.015466 0.083551 -3.020363
2011-08-18 06:48:49 51°15.127 2°54.227 22.1618 0.015466 0.083551 -3.020363
2011-08-18 06:48:54 51°15.141 2°54.209 22.1552 0.015466 0.083552 -3.020363
2011-08-18 06:48:59 51°15.154 2°54.191 22.1303 0.015466 0.083552 -3.020363
2011-08-18 06:49:03 51°15.165 2°54.177 22.1448 0.015466 0.083552 -3.020363
2011-08-18 06:49:09 51°15.182 2°54.156 22.1539 0.015466 0.083552 -3.020363
2011-08-18 06:49:14 51°15.196 2°54.138 22.1516 0.015466 0.083553 -3.020363
2011-08-18 06:49:19 51°15.21 2°54.121 22.173 0.015466 0.083553 -3.020363
2011-08-18 06:49:23 51°15.221 2°54.107 22.1648 0.015466 0.083553 -3.020363
2011-08-18 06:49:29 51°15.238 2°54.086 22.1652 0.015466 0.083553 -3.020363
2011-08-18 06:49:34 51°15.252 2°54.068 22.1319 0.015466 0.083555 -3.020363
2011-08-18 06:49:39 51°15.266 2°54.051 22.1616 0.015466 0.083555 -3.020363
2011-08-18 06:49:43 51°15.277 2°54.037 22.172 0.015466 0.083555 -3.020363
2011-08-18 06:49:49 51°15.294 2°54.016 22.1703 0.015466 0.083556 -3.020363
2011-08-18 06:49:54 51°15.308 2°53.998 22.1256 0.015466 0.083556 -3.020363
2011-08-18 06:49:59 51°15.322 2°53.981 22.1784 0.015466 0.083556 -3.020363
2011-08-18 06:50:03 51°15.333 2°53.967 22.1776 0.015466 0.083556 -3.020363
2011-08-18 06:50:09 51°15.35 2°53.945 22.1747 0.015466 0.083557 -3.020363
2011-08-18 06:50:14 51°15.363 2°53.927 22.1956 0.015466 0.083557 -3.020363
2011-08-18 06:50:19 51°15.377 2°53.907 22.1739 0.015466 0.083557 -3.020363
2011-08-18 06:50:24 51°15.39 2°53.889 22.1513 0.015466 0.083558 -3.020363
2011-08-18 06:50:29 51°15.403 2°53.87 22.1641 0.015466 0.083558 -3.020363
2011-08-18 06:50:34 51°15.416 2°53.851 22.1485 0.015466 0.083558 -3.020363
2011-08-18 06:50:39 51°15.429 2°53.832 22.1349 0.015466 0.083558 -3.020363
2011-08-18 06:50:43 51°15.44 2°53.817 22.1559 0.015466 0.08356 -3.020363
2011-08-18 06:50:49 51°15.456 2°53.794 22.1577 0.015466 0.08356 -3.020363
2011-08-18 06:50:54 51°15.469 2°53.776 22.1589 0.015466 0.08356 -3.020363
2011-08-18 06:50:59 51°15.483 2°53.757 22.1812 0.015466 0.08356 -3.020363
2011-08-18 06:51:03 51°15.494 2°53.743 22.1794 0.015466 0.083561 -3.020363
2011-08-18 06:51:09 51°15.51 2°53.721 22.1918 0.015466 0.083561 -3.020363
2011-08-18 06:51:14 51°15.523 2°53.702 22.1374 0.015466 0.083561 -3.020363
2011-08-18 06:51:19 51°15.537 2°53.684 22.1426 0.015466 0.083562 -3.020363
2011-08-18 06:51:23 51°15.547 2°53.669 22.1655 0.015466 0.083563 -3.020363
2011-08-18 06:51:29 51°15.564 2°53.648 22.1316 0.015466 0.083563 -3.020363
2011-08-18 06:51:34 51°15.578 2°53.631 22.173 0.015466 0.083563 -3.020363
2011-08-18 06:51:39 51°15.592 2°53.613 22.1399 0.015466 0.083563 -3.020363
2011-08-18 06:51:43 51°15.603 2°53.6 22.1698 0.015466 0.083563 -3.020363
2011-08-18 06:51:49 51°15.621 2°53.58 22.1662 0.015466 0.083564 -3.020363
2011-08-18 06:51:54 51°15.635 2°53.563 22.1614 0.015466 0.083563 -3.020363
2011-08-18 06:51:59 51°15.65 2°53.547 22.1461 0.015466 0.083563 -3.020363
2011-08-18 06:52:03 51°15.661 2°53.535 22.1706 0.015466 0.083564 -3.020363
2011-08-18 06:52:09 51°15.679 2°53.516 22.1772 0.015466 0.083566 -3.020363
2011-08-18 06:52:14 51°15.694 2°53.501 22.1681 0.015466 0.083566 -3.020363
2011-08-18 06:52:19 51°15.709 2°53.486 22.1833 0.015466 0.083566 -3.020363
2011-08-18 06:52:23 51°15.721 2°53.474 22.1664 0.015466 0.083566 -3.020363
2011-08-18 06:52:29 51°15.739 2°53.456 22.1621 0.015466 0.083566 -3.020363
2011-08-18 06:52:34 51°15.754 2°53.442 22.194 0.015466 0.083567 -3.020363
2011-08-18 06:52:39 51°15.769 2°53.427 22.1806 0.015466 0.083567 -3.020363
2011-08-18 06:52:43 51°15.781 2°53.415 22.1845 0.015466 0.083568 -3.020363
2011-08-18 06:52:49 51°15.798 2°53.397 22.1606 0.015466 0.083568 -3.020363
2011-08-18 06:52:54 51°15.813 2°53.381 22.156 0.015466 0.083568 -3.020363
2011-08-18 06:52:59 51°15.828 2°53.366 22.1827 0.015466 0.083568 -3.020363
2011-08-18 06:53:04 51°15.843 2°53.351 22.16 0.015466 0.083569 -3.020363
2011-08-18 06:53:09 51°15.858 2°53.337 22.1764 0.015466 0.083569 -3.020363
2011-08-18 06:53:14 51°15.873 2°53.322 22.1579 0.015466 0.083569 -3.020363
2011-08-18 06:53:19 51°15.888 2°53.308 22.1794 0.015466 0.083569 -3.020363
2011-08-18 06:53:24 51°15.904 2°53.294 22.1773 0.015466 0.08357 -3.020363
2011-08-18 06:53:29 51°15.919 2°53.28 22.1706 0.015466 0.08357 -3.020363
2011-08-18 06:53:34 51°15.935 2°53.267 22.1754 0.015466 0.08357 -3.020363
2011-08-18 06:53:39 51°15.95 2°53.253 22.1778 0.015466 0.08357 -3.020363
2011-08-18 06:53:44 51°15.966 2°53.241 22.1692 0.015466 0.083572 -3.020363
2011-08-18 06:53:49 51°15.981 2°53.228 22.1808 0.015466 0.083572 -3.020363
2011-08-18 06:53:54 51°15.997 2°53.215 22.1784 0.015466 0.083572 -3.020363
2011-08-18 06:53:59 51°16.013 2°53.203 22.1506 0.015466 0.083572 -3.020363
2011-08-18 06:54:03 51°16.026 2°53.193 22.1637 0.015466 0.083573 -3.020363
2011-08-18 06:54:09 51°16.044 2°53.178 22.1847 0.015466 0.083574 -3.020363
2011-08-18 06:54:14 51°16.06 2°53.166 22.189 0.015466 0.083574 -3.020363
2011-08-18 06:54:19 51°16.076 2°53.155 22.1961 0.015466 0.083574 -3.020363
2011-08-18 06:54:24 51°16.092 2°53.142 22.1767 0.015466 0.083574 -3.020363
2011-08-18 06:54:29 51°16.107 2°53.13 22.1952 0.015466 0.083574 -3.020363
2011-08-18 06:54:34 51°16.123 2°53.117 22.171 0.015466 0.083574 -3.020363
2011-08-18 06:54:39 51°16.138 2°53.105 22.1833 0.015466 0.083575 -3.020363
2011-08-18 06:54:43 51°16.151 2°53.094 22.1981 0.015466 0.083575 -3.020363
2011-08-18 06:54:49 51°16.169 2°53.078 22.1688 0.015466 0.083575 -3.020363
2011-08-18 06:54:54 51°16.184 2°53.065 22.1931 0.015466 0.083576 -3.020363
2011-08-18 06:54:59 51°16.2 2°53.051 22.1911 0.015466 0.083576 -3.020363
2011-08-18 06:55:04 51°16.215 2°53.037 22.2004 0.015466 0.083576 -3.020363
2011-08-18 06:55:09 51°16.23 2°53.023 22.2014 0.015466 0.083576 -3.020363
2011-08-18 06:55:14 51°16.245 2°53.009 22.1845 0.015466 0.083576 -3.020363
2011-08-18 06:55:19 51°16.26 2°52.995 22.1999 0.015466 0.083578 -3.020363
2011-08-18 06:55:24 51°16.275 2°52.981 22.1787 0.015466 0.083578 -3.020363
2011-08-18 06:55:29 51°16.29 2°52.966 22.1895 0.015466 0.083578 -3.020363
2011-08-18 06:55:34 51°16.305 2°52.951 22.171 0.015466 0.083578 -3.020363
2011-08-18 06:55:39 51°16.32 2°52.937 22.172 0.015466 0.083579 -3.020363
2011-08-18 06:55:44 51°16.335 2°52.923 22.1845 0.015466 0.083579 -3.020363
2011-08-18 06:55:49 51°16.35 2°52.909 22.1689 0.015466 0.083579 -3.020363
2011-08-18 06:55:54 51°16.365 2°52.896 22.1725 0.015466 0.08358 -3.020363
2011-08-18 06:55:59 51°16.381 2°52.882 22.168 0.015466 0.08358 -3.020363
2011-08-18 06:56:04 51°16.396 2°52.869 22.19 0.015466 0.08358 -3.020363
2011-08-18 06:56:09 51°16.412 2°52.857 22.1751 0.015466 0.08358 -3.020363
2011-08-18 06:56:14 51°16.427 2°52.844 22.1962 0.015466 0.08358 -3.020363
2011-08-18 06:56:19 51°16.443 2°52.832 22.1999 0.015466 0.083581 -3.020363
2011-08-18 06:56:23 51°16.456 2°52.822 22.1993 0.015466 0.083581 -3.020363
2011-08-18 06:56:29 51°16.474 2°52.808 22.2027 0.015466 0.083581 -3.020363
2011-08-18 06:56:34 51°16.49 2°52.796 22.2047 0.015466 0.083583 -3.020363
2011-08-18 06:56:39 51°16.506 2°52.785 22.1861 0.015466 0.083583 -3.020363
2011-08-18 06:56:43 51°16.519 2°52.775 22.1858 0.015466 0.083583 -3.020363
2011-08-18 06:56:48 51°16.535 2°52.763 22.18 0.015466 0.083583 -3.020363
2011-08-18 06:56:54 51°16.554 2°52.749 22.1828 0.015466 0.083584 -3.020363
2011-08-18 06:56:59 51°16.569 2°52.738 22.2102 0.015466 0.083584 -3.020363
2011-08-18 06:57:04 51°16.585 2°52.727 22.2055 0.015466 0.083585 -3.020363
2011-08-18 06:57:09 51°16.601 2°52.716 22.2017 0.015466 0.083585 -3.020363
2011-08-18 06:57:14 51°16.617 2°52.705 22.213 0.015466 0.083585 -3.020363
2011-08-18 06:57:19 51°16.633 2°52.694 22.2199 0.015466 0.083586 -3.020363
2011-08-18 06:57:23 51°16.646 2°52.686 22.2019 0.015466 0.083586 -3.020363
2011-08-18 06:57:29 51°16.665 2°52.673 22.1912 0.015466 0.083586 -3.020363
2011-08-18 06:57:34 51°16.682 2°52.663 22.2203 0.015466 0.083586 -3.020363
2011-08-18 06:57:39 51°16.698 2°52.653 22.1958 0.015466 0.083586 -3.020363
2011-08-18 06:57:43 51°16.71 2°52.644 22.2166 0.015466 0.083587 -3.020363
2011-08-18 06:57:49 51°16.73 2°52.632 22.2022 0.015466 0.083587 -3.020363
2011-08-18 06:57:54 51°16.746 2°52.621 22.2171 0.015466 0.083587 -3.020363
2011-08-18 06:57:59 51°16.762 2°52.611 22.2148 0.015466 0.083587 -3.020363
2011-08-18 06:58:04 51°16.778 2°52.601 22.2156 0.015466 0.083589 -3.020363
2011-08-18 06:58:09 51°16.794 2°52.59 22.1948 0.015466 0.083589 -3.020363
2011-08-18 06:58:14 51°16.81 2°52.579 22.2112 0.015466 0.083589 -3.020363
2011-08-18 06:58:19 51°16.826 2°52.569 22.2067 0.015466 0.083589 -3.020363
2011-08-18 06:58:23 51°16.839 2°52.561 22.2207 0.015466 0.08359 -3.020363
2011-08-18 06:58:29 51°16.858 2°52.549 22.2148 0.015466 0.08359 -3.020363
2011-08-18 06:58:34 51°16.874 2°52.538 22.2153 0.015466 0.08359 -3.020363
2011-08-18 06:58:39 51°16.89 2°52.527 22.2283 0.015466 0.08359 -3.020363
2011-08-18 06:58:43 51°16.903 2°52.518 22.2156 0.015466 0.083591 -3.020363
2011-08-18 06:58:49 51°16.922 2°52.505 22.2234 0.015466 0.083591 -3.020363
2011-08-18 06:58:54 51°16.937 2°52.493 22.2155 0.015466 0.083591 -3.020363
2011-08-18 06:58:59 51°16.953 2°52.481 22.2123 0.015466 0.083591 -3.020363
2011-08-18 06:59:03 51°16.965 2°52.471 22.2191 0.015466 0.083592 -3.020363
2011-08-18 06:59:08 51°16.981 2°52.458 22.2252 0.015466 0.083592 -3.020363
2011-08-18 06:59:14 51°16.999 2°52.443 22.2129 0.015466 0.083592 -3.020363
2011-08-18 06:59:19 51°17.014 2°52.429 22.2193 0.015466 0.083593 -3.020363
2011-08-18 06:59:24 51°17.03 2°52.416 22.2201 0.015466 0.083593 -3.020363
2011-08-18 06:59:29 51°17.045 2°52.404 22.2188 0.015466 0.083593 -3.020363
2011-08-18 06:59:34 51°17.061 2°52.391 22.2275 0.015466 0.083593 -3.020363
2011-08-18 06:59:39 51°17.076 2°52.379 22.2212 0.015466 0.083593 -3.020363
2011-08-18 06:59:44 51°17.092 2°52.366 22.2177 0.015466 0.083595 -3.020363
2011-08-18 06:59:49 51°17.108 2°52.354 22.224 0.015466 0.083596 -3.020363
2011-08-18 06:59:54 51°17.124 2°52.342 22.2293 0.015466 0.083596 -3.020363
2011-08-18 06:59:59 51°17.139 2°52.33 22.2034 0.015466 0.083596 -3.020363
2011-08-18 07:00:04 51°17.155 2°52.319 22.2276 0.015466 0.083596 -3.020363
2011-08-18 07:00:09 51°17.172 2°52.308 22.2282 0.015466 0.083596 -3.020363
2011-08-18 07:00:14 51°17.187 2°52.297 22.2218 0.015466 0.083597 -3.020363
2011-08-18 07:00:19 51°17.204 2°52.286 22.2236 0.015466 0.083597 -3.020363
2011-08-18 07:00:24 51°17.219 2°52.275 22.2295 0.015466 0.083598 -3.020363
2011-08-18 07:00:29 51°17.235 2°52.264 22.2326 0.015466 0.083598 -3.020363
2011-08-18 07:00:34 51°17.252 2°52.253 22.2315 0.015466 0.083598 -3.020363
2011-08-18 07:00:39 51°17.268 2°52.242 22.2142 0.015466 0.083598 -3.020363
2011-08-18 07:00:43 51°17.28 2°52.233 22.2301 0.015466 0.083598 -3.020363
2011-08-18 07:00:49 51°17.3 2°52.219 22.2307 0.015466 0.0836 -3.020363
2011-08-18 07:00:54 51°17.316 2°52.208 22.2289 0.015466 0.0836 -3.020363
2011-08-18 07:00:59 51°17.332 2°52.197 22.2344 0.015466 0.0836 -3.020363
2011-08-18 07:01:03 51°17.344 2°52.188 22.2305 0.015466 0.0836 -3.020363
2011-08-18 07:01:09 51°17.364 2°52.174 22.2211 0.015466 0.083601 -3.020363
2011-08-18 07:01:14 51°17.38 2°52.163 22.2396 0.015466 0.083601 -3.020363
2011-08-18 07:01:19 51°17.395 2°52.151 22.2402 0.015466 0.083602 -3.020363
2011-08-18 07:01:24 51°17.411 2°52.139 22.2377 0.015466 0.083601 -3.020363
2011-08-18 07:01:28 51°17.424 2°52.13 22.2418 0.015466 0.083601 -3.020363
2011-08-18 07:01:34 51°17.443 2°52.115 22.2428 0.015466 0.083602 -3.020363
2011-08-18 07:01:39 51°17.459 2°52.103 22.228 0.015466 0.083603 -3.020363
2011-08-18 07:01:43 51°17.471 2°52.093 22.2426 0.015466 0.083603 -3.020363
2011-08-18 07:01:49 51°17.49 2°52.078 22.2436 0.015466 0.083604 -3.020363
2011-08-18 07:01:54 51°17.506 2°52.066 22.2444 0.015466 0.083604 -3.020363
2011-08-18 07:01:59 51°17.521 2°52.053 22.2417 0.015466 0.083604 -3.020363
2011-08-18 07:02:04 51°17.537 2°52.04 22.241 0.015466 0.083604 -3.020363
2011-08-18 07:02:09 51°17.552 2°52.027 22.2437 0.015466 0.083604 -3.020363
2011-08-18 07:02:14 51°17.568 2°52.015 22.2253 0.015466 0.083606 -3.020363
2011-08-18 07:02:19 51°17.583 2°52.002 22.2556 0.015466 0.083606 -3.020363
2011-08-18 07:02:24 51°17.599 2°51.989 22.2366 0.015466 0.083606 -3.020363
2011-08-18 07:02:29 51°17.614 2°51.977 22.2498 0.015466 0.083606 -3.020363
2011-08-18 07:02:34 51°17.63 2°51.963 22.2513 0.015466 0.083606 -3.020363
2011-08-18 07:02:39 51°17.646 2°51.951 22.2456 0.015466 0.083607 -3.020363
2011-08-18 07:02:43 51°17.658 2°51.942 22.2496 0.015466 0.083607 -3.020363
2011-08-18 07:02:49 51°17.677 2°51.927 22.2498 0.015466 0.083607 -3.020363
2011-08-18 07:02:54 51°17.693 2°51.916 22.2476 0.015466 0.083608 -3.020363
2011-08-18 07:02:59 51°17.709 2°51.904 22.26 0.015466 0.083608 -3.020363
2011-08-18 07:03:03 51°17.721 2°51.894 22.2573 0.015466 0.083608 -3.020363
2011-08-18 07:03:09 51°17.74 2°51.88 22.2359 0.015466 0.083608 -3.020363
2011-08-18 07:03:14 51°17.756 2°51.868 22.2444 0.015466 0.083609 -3.020363
2011-08-18 07:03:19 51°17.771 2°51.855 22.2437 0.015466 0.083609 -3.020363
2011-08-18 07:03:24 51°17.787 2°51.845 22.2569 0.015466 0.083609 -3.020363
2011-08-18 07:03:28 51°17.8 2°51.836 22.2491 0.015466 0.083609 -3.020363
2011-08-18 07:03:34 51°17.819 2°51.822 22.2484 0.015466 0.083609 -3.020363
2011-08-18 07:03:39 51°17.835 2°51.811 22.2619 0.015466 0.08361 -3.020363
2011-08-18 07:03:43 51°17.848 2°51.803 22.255 0.015466 0.08361 -3.020363
2011-08-18 07:03:49 51°17.868 2°51.79 22.2693 0.015466 0.083612 -3.020363
2011-08-18 07:03:54 51°17.884 2°51.779 22.2706 0.015466 0.083612 -3.020363
2011-08-18 07:03:59 51°17.9 2°51.768 22.245 0.015466 0.083612 -3.020363
2011-08-18 07:04:04 51°17.916 2°51.756 22.2517 0.015466 0.083612 -3.020363
2011-08-18 07:04:09 51°17.932 2°51.745 22.2691 0.015466 0.083613 -3.020363
2011-08-18 07:04:14 51°17.947 2°51.733 22.2591 0.015466 0.083613 -3.020363
2011-08-18 07:04:19 51°17.963 2°51.72 22.2658 0.015466 0.083613 -3.020363
2011-08-18 07:04:23 51°17.976 2°51.711 22.2507 0.015466 0.083613 -3.020363
2011-08-18 07:04:29 51°17.994 2°51.695 22.2539 0.015466 0.083613 -3.020363
2011-08-18 07:04:34 51°18.01 2°51.683 22.2738 0.015466 0.083614 -3.020363
2011-08-18 07:04:39 51°18.026 2°51.67 22.2616 0.015466 0.083615 -3.020363
2011-08-18 07:04:43 51°18.038 2°51.659 22.261 0.015466 0.083615 -3.020363
2011-08-18 07:04:49 51°18.057 2°51.645 22.26 0.015466 0.083615 -3.020363
2011-08-18 07:04:54 51°18.073 2°51.633 22.2714 0.015466 0.083615 -3.020363
2011-08-18 07:04:59 51°18.089 2°51.621 22.2522 0.015466 0.083615 -3.020363
2011-08-18 07:05:03 51°18.102 2°51.612 22.2605 0.015466 0.083615 -3.020363
2011-08-18 07:05:09 51°18.121 2°51.598 22.2555 0.015466 0.083617 -3.020363
2011-08-18 07:05:14 51°18.137 2°51.587 22.2579 0.015466 0.083618 -3.020363
2011-08-18 07:05:19 51°18.154 2°51.578 22.2669 0.015466 0.083618 -3.020363
2011-08-18 07:05:23 51°18.167 2°51.57 22.2599 0.015466 0.083618 -3.020363
2011-08-18 07:05:29 51°18.186 2°51.557 22.2728 0.015466 0.083618 -3.020363
2011-08-18 07:05:34 51°18.203 2°51.547 22.2696 0.015466 0.083618 -3.020363
2011-08-18 07:05:39 51°18.219 2°51.537 22.2814 0.015466 0.083619 -3.020363
2011-08-18 07:05:43 51°18.232 2°51.53 22.2835 0.015466 0.083619 -3.020363
2011-08-18 07:05:49 51°18.252 2°51.517 22.2708 0.015466 0.083619 -3.020363
2011-08-18 07:05:54 51°18.268 2°51.506 22.2898 0.015466 0.083619 -3.020363
2011-08-18 07:05:59 51°18.284 2°51.495 22.2766 0.015466 0.083619 -3.020363
2011-08-18 07:06:03 51°18.297 2°51.485 22.2671 0.015466 0.083619 -3.020363
2011-08-18 07:06:09 51°18.316 2°51.471 22.2815 0.015466 0.08362 -3.020363
2011-08-18 07:06:14 51°18.332 2°51.459 22.2802 0.015466 0.083623 -3.020363
2011-08-18 07:06:19 51°18.348 2°51.447 22.26 0.015466 0.083623 -3.020363
2011-08-18 07:06:23 51°18.361 2°51.438 22.27 0.015466 0.083621 -3.020363
2011-08-18 07:06:29 51°18.38 2°51.424 22.2901 0.015466 0.083621 -3.020363
2011-08-18 07:06:34 51°18.396 2°51.412 22.2838 0.015466 0.083623 -3.020363
2011-08-18 07:06:39 51°18.412 2°51.401 22.2946 0.015466 0.083623 -3.020363
2011-08-18 07:06:44 51°18.428 2°51.389 22.281 0.015466 0.083623 -3.020363
2011-08-18 07:06:49 51°18.444 2°51.377 22.2845 0.015466 0.083624 -3.020363
2011-08-18 07:06:54 51°18.46 2°51.364 22.2823 0.015466 0.083624 -3.020363
2011-08-18 07:06:59 51°18.475 2°51.351 22.2888 0.015466 0.083624 -3.020363
2011-08-18 07:07:04 51°18.491 2°51.339 22.275 0.015466 0.083624 -3.020363
2011-08-18 07:07:09 51°18.507 2°51.326 22.2834 0.015466 0.083624 -3.020363
2011-08-18 07:07:14 51°18.522 2°51.313 22.2821 0.015466 0.083625 -3.020363
2011-08-18 07:07:19 51°18.538 2°51.3 22.2809 0.015466 0.083625 -3.020363
2011-08-18 07:07:23 51°18.551 2°51.29 22.2933 0.015466 0.083625 -3.020363
2011-08-18 07:07:29 51°18.57 2°51.276 22.2848 0.015466 0.083625 -3.020363
2011-08-18 07:07:34 51°18.586 2°51.263 22.2895 0.015466 0.083626 -3.020363
2011-08-18 07:07:39 51°18.602 2°51.251 22.2997 0.015466 0.083626 -3.020363
2011-08-18 07:07:43 51°18.615 2°51.242 22.2833 0.015466 0.083626 -3.020363
2011-08-18 07:07:49 51°18.634 2°51.228 22.2976 0.015466 0.083626 -3.020363
2011-08-18 07:07:54 51°18.65 2°51.215 22.3007 0.015466 0.083627 -3.020363
2011-08-18 07:07:59 51°18.666 2°51.202 22.2793 0.015466 0.083627 -3.020363
2011-08-18 07:08:03 51°18.678 2°51.191 22.3023 0.015466 0.083627 -3.020363
2011-08-18 07:08:09 51°18.697 2°51.175 22.2924 0.015466 0.083627 -3.020363
2011-08-18 07:08:14 51°18.713 2°51.162 22.2918 0.015466 0.083629 -3.020363
2011-08-18 07:08:19 51°18.728 2°51.148 22.301 0.015466 0.083629 -3.020363
2011-08-18 07:08:24 51°18.744 2°51.135 22.2977 0.015466 0.083629 -3.020363
2011-08-18 07:08:29 51°18.76 2°51.121 22.281 0.015466 0.083629 -3.020363
2011-08-18 07:08:34 51°18.775 2°51.108 22.2902 0.015466 0.083629 -3.020363
2011-08-18 07:08:39 51°18.791 2°51.095 22.2984 0.015466 0.08363 -3.020363
2011-08-18 07:08:43 51°18.804 2°51.085 22.3033 0.015466 0.08363 -3.020363
2011-08-18 07:08:49 51°18.822 2°51.07 22.3094 0.015466 0.08363 -3.020363
2011-08-18 07:08:54 51°18.838 2°51.057 22.3047 0.015466 0.083631 -3.020363
2011-08-18 07:08:59 51°18.854 2°51.044 22.3051 0.015466 0.083631 -3.020363
2011-08-18 07:09:03 51°18.867 2°51.034 22.3005 0.015466 0.083631 -3.020363
2011-08-18 07:09:09 51°18.886 2°51.019 22.3108 0.015466 0.083631 -3.020363
2011-08-18 07:09:14 51°18.902 2°51.008 22.3081 0.015466 0.083632 -3.020363
2011-08-18 07:09:19 51°18.918 2°50.995 22.3101 0.015466 0.083632 -3.020363
2011-08-18 07:09:24 51°18.934 2°50.983 22.3028 0.015466 0.083634 -3.020363
2011-08-18 07:09:29 51°18.949 2°50.971 22.3073 0.015466 0.083634 -3.020363
2011-08-18 07:09:34 51°18.965 2°50.959 22.3104 0.015466 0.083634 -3.020363
2011-08-18 07:09:39 51°18.981 2°50.946 22.3112 0.015466 0.083635 -3.020363
2011-08-18 07:09:43 51°18.994 2°50.937 22.3054 0.015466 0.083634 -3.020363
2011-08-18 07:09:49 51°19.013 2°50.922 22.3057 0.015466 0.083635 -3.020363
2011-08-18 07:09:54 51°19.029 2°50.91 22.3186 0.015466 0.083635 -3.020363
2011-08-18 07:09:59 51°19.045 2°50.898 22.301 0.015466 0.083635 -3.020363
2011-08-18 07:10:03 51°19.058 2°50.889 22.3134 0.015466 0.083635 -3.020363
2011-08-18 07:10:09 51°19.077 2°50.875 22.3042 0.015466 0.083636 -3.020363
2011-08-18 07:10:14 51°19.093 2°50.863 22.3175 0.015466 0.083636 -3.020363
2011-08-18 07:10:19 51°19.109 2°50.851 22.3239 0.015466 0.083636 -3.020363
2011-08-18 07:10:23 51°19.122 2°50.841 22.3109 0.015466 0.083636 -3.020363
2011-08-18 07:10:29 51°19.141 2°50.826 22.3039 0.015466 0.083636 -3.020363
2011-08-18 07:10:34 51°19.156 2°50.814 22.3309 0.015466 0.083637 -3.020363
2011-08-18 07:10:39 51°19.172 2°50.801 22.3123 0.015466 0.083638 -3.020363
2011-08-18 07:10:44 51°19.188 2°50.788 22.3208 0.015466 0.083638 -3.020363
2011-08-18 07:10:49 51°19.204 2°50.775 22.3224 0.015466 0.083638 -3.020363
2011-08-18 07:10:54 51°19.219 2°50.762 22.3172 0.015466 0.08364 -3.020363
2011-08-18 07:10:59 51°19.235 2°50.749 22.3184 0.015466 0.08364 -3.020363
2011-08-18 07:11:04 51°19.251 2°50.736 22.3197 0.015466 0.08364 -3.020363
2011-08-18 07:11:09 51°19.266 2°50.724 22.3304 0.015466 0.083641 -3.020363
2011-08-18 07:11:14 51°19.283 2°50.711 22.3151 0.015466 0.08364 -3.020363
2011-08-18 07:11:19 51°19.298 2°50.698 22.3323 0.015466 0.083641 -3.020363
2011-08-18 07:11:24 51°19.314 2°50.686 22.3267 0.015466 0.083641 -3.020363
2011-08-18 07:11:29 51°19.33 2°50.673 22.3359 0.015466 0.083641 -3.020363
2011-08-18 07:11:34 51°19.346 2°50.66 22.318 0.015466 0.083642 -3.020363
2011-08-18 07:11:39 51°19.362 2°50.647 22.3156 0.015466 0.083642 -3.020363
2011-08-18 07:11:44 51°19.377 2°50.634 22.3344 0.015466 0.083642 -3.020363
2011-08-18 07:11:49 51°19.393 2°50.621 22.3339 0.015466 0.083642 -3.020363
2011-08-18 07:11:54 51°19.409 2°50.608 22.3341 0.015466 0.083643 -3.020363
2011-08-18 07:11:59 51°19.425 2°50.595 22.3321 0.015466 0.083643 -3.020363
2011-08-18 07:12:03 51°19.437 2°50.584 22.3254 0.015466 0.083643 -3.020363
2011-08-18 07:12:09 51°19.457 2°50.57 22.3351 0.015466 0.083643 -3.020363
2011-08-18 07:12:14 51°19.473 2°50.556 22.3331 0.015466 0.083644 -3.020363
2011-08-18 07:12:19 51°19.488 2°50.544 22.3378 0.015466 0.083644 -3.020363
2011-08-18 07:12:23 51°19.501 2°50.534 22.3354 0.015466 0.083646 -3.020363
2011-08-18 07:12:29 51°19.521 2°50.52 22.3499 0.015466 0.083646 -3.020363
2011-08-18 07:12:34 51°19.537 2°50.508 22.3207 0.015466 0.083646 -3.020363
2011-08-18 07:12:39 51°19.553 2°50.495 22.3524 0.015466 0.083646 -3.020363
2011-08-18 07:12:43 51°19.566 2°50.486 22.3445 0.015466 0.083646 -3.020363
2011-08-18 07:12:48 51°19.582 2°50.473 22.3428 0.015466 0.083647 -3.020363
2011-08-18 07:12:54 51°19.601 2°50.457 22.3332 0.015466 0.083647 -3.020363
2011-08-18 07:12:59 51°19.617 2°50.444 22.34 0.015466 0.083647 -3.020363
2011-08-18 07:13:03 51°19.629 2°50.433 22.3508 0.015466 0.083648 -3.020363
2011-08-18 07:13:09 51°19.648 2°50.417 22.3332 0.015466 0.083648 -3.020363
2011-08-18 07:13:14 51°19.664 2°50.403 22.3343 0.015466 0.083648 -3.020363
2011-08-18 07:13:19 51°19.68 2°50.389 22.3542 0.015466 0.083648 -3.020363
2011-08-18 07:13:23 51°19.693 2°50.378 22.3442 0.015466 0.083649 -3.020363
2011-08-18 07:13:29 51°19.712 2°50.363 22.3497 0.015466 0.083649 -3.020363
2011-08-18 07:13:34 51°19.728 2°50.35 22.3481 0.015466 0.083651 -3.020363
2011-08-18 07:13:39 51°19.744 2°50.338 22.3494 0.015466 0.083649 -3.020363
2011-08-18 07:13:43 51°19.757 2°50.328 22.3474 0.015466 0.083651 -3.020363
2011-08-18 07:13:49 51°19.776 2°50.313 22.3416 0.015466 0.083651 -3.020363
2011-08-18 07:13:54 51°19.792 2°50.301 22.3574 0.015466 0.083651 -3.020363
2011-08-18 07:13:59 51°19.808 2°50.289 22.3405 0.015466 0.083651 -3.020363
2011-08-18 07:14:04 51°19.824 2°50.277 22.3562 0.015466 0.083651 -3.020363
2011-08-18 07:14:08 51°19.837 2°50.267 22.3471 0.015466 0.083652 -3.020363
2011-08-18 07:14:14 51°19.856 2°50.252 22.351 0.015466 0.083652 -3.020363
2011-08-18 07:14:19 51°19.872 2°50.239 22.3661 0.015363 0.083119 -3.020363
2011-08-18 07:14:23 51°19.885 2°50.229 22.3507 0.015466 0.083653 -3.020363
2011-08-18 07:14:29 51°19.904 2°50.213 22.3575 0.015466 0.083653 -3.020363
2011-08-18 07:14:34 51°19.92 2°50.2 22.3716 0.015466 0.083653 -3.020363
2011-08-18 07:14:39 51°19.935 2°50.186 22.3628 0.015466 0.083653 -3.020363
2011-08-18 07:14:43 51°19.948 2°50.175 22.3627 0.015363 0.083122 -3.020363
2011-08-18 07:14:48 51°19.963 2°50.161 22.3616 0.015363 0.083122 -3.020363
2011-08-18 07:14:54 51°19.982 2°50.145 22.3644 0.015363 0.083122 -3.020363
2011-08-18 07:14:59 51°19.998 2°50.131 22.3626 0.015363 0.083122 -3.020363
2011-08-18 07:15:03 51°20.01 2°50.12 22.3648 0.015363 0.083122 -3.020363
2011-08-18 07:15:08 51°20.026 2°50.106 22.3502 0.015466 0.083655 -3.020363
2011-08-18 07:15:14 51°20.045 2°50.091 22.3626 0.015363 0.083123 -3.020363
2011-08-18 07:15:19 51°20.061 2°50.077 22.347 0.015363 0.083124 -3.020363
2011-08-18 07:15:23 51°20.074 2°50.066 22.3625 0.015363 0.083124 -3.020363
2011-08-18 07:15:29 51°20.092 2°50.051 22.3601 0.015363 0.083124 -3.020363
2011-08-18 07:15:34 51°20.108 2°50.038 22.3649 0.015363 0.083124 -3.020363
2011-08-18 07:15:39 51°20.124 2°50.026 22.3715 0.015363 0.083124 -3.020363
2011-08-18 07:15:43 51°20.137 2°50.016 22.3639 0.015363 0.083124 -3.020363
2011-08-18 07:15:49 51°20.156 2°50.001 22.3699 0.015363 0.083124 -3.020363
2011-08-18 07:15:54 51°20.172 2°49.99 22.3676 0.015363 0.083125 -3.020363
2011-08-18 07:15:59 51°20.187 2°49.978 22.3691 0.015363 0.083125 -3.020363
2011-08-18 07:16:04 51°20.203 2°49.967 22.3671 0.015363 0.083125 -3.020363
2011-08-18 07:16:09 51°20.219 2°49.956 22.3686 0.015363 0.083127 -3.020363
2011-08-18 07:16:14 51°20.235 2°49.944 22.3661 0.015363 0.083127 -3.020363
2011-08-18 07:16:19 51°20.251 2°49.933 22.3799 0.015363 0.083127 -3.020363
2011-08-18 07:16:24 51°20.267 2°49.922 22.37 0.015363 0.083127 -3.020363
2011-08-18 07:16:28 51°20.279 2°49.913 22.3745 0.015363 0.083127 -3.020363
2011-08-18 07:16:34 51°20.298 2°49.899 22.3724 0.015363 0.083128 -3.020363
2011-08-18 07:16:39 51°20.314 2°49.888 22.3766 0.015363 0.083128 -3.020363
2011-08-18 07:16:43 51°20.327 2°49.88 22.3892 0.015363 0.083128 -3.020363
2011-08-18 07:16:48 51°20.343 2°49.869 22.3765 0.015363 0.083129 -3.020363
2011-08-18 07:16:54 51°20.362 2°49.856 22.3742 0.015363 0.083129 -3.020363
2011-08-18 07:16:59 51°20.378 2°49.845 22.3947 0.015363 0.083129 -3.020363
2011-08-18 07:17:03 51°20.391 2°49.836 22.3852 0.015363 0.083129 -3.020363
2011-08-18 07:17:09 51°20.41 2°49.822 22.3936 0.015363 0.08313 -3.020363
2011-08-18 07:17:14 51°20.426 2°49.811 22.3865 0.015363 0.08313 -3.020363
2011-08-18 07:17:19 51°20.442 2°49.798 22.3859 0.015363 0.08313 -3.020363
2011-08-18 07:17:23 51°20.454 2°49.788 22.4049 0.015363 0.083131 -3.020363
2011-08-18 07:17:29 51°20.473 2°49.772 22.3962 0.015363 0.083131 -3.020363
2011-08-18 07:17:34 51°20.489 2°49.76 22.3825 0.015363 0.083131 -3.020363
2011-08-18 07:17:39 51°20.504 2°49.746 22.3778 0.015363 0.083131 -3.020363
2011-08-18 07:17:44 51°20.52 2°49.733 22.3808 0.015363 0.083133 -3.020363
2011-08-18 07:17:48 51°20.532 2°49.722 22.3944 0.015363 0.083133 -3.020363
2011-08-18 07:17:54 51°20.551 2°49.705 22.372 0.015363 0.083133 -3.020363
2011-08-18 07:17:59 51°20.566 2°49.691 22.3741 0.015363 0.083133 -3.020363
2011-08-18 07:18:04 51°20.582 2°49.678 22.3925 0.015363 0.083133 -3.020363
2011-08-18 07:18:08 51°20.595 2°49.668 22.3927 0.015363 0.083134 -3.020363
2011-08-18 07:18:14 51°20.614 2°49.653 22.3996 0.015363 0.083134 -3.020363
2011-08-18 07:18:19 51°20.63 2°49.641 22.3932 0.015363 0.083134 -3.020363
2011-08-18 07:18:23 51°20.643 2°49.631 22.4116 0.015363 0.083135 -3.020363
2011-08-18 07:18:29 51°20.662 2°49.616 22.3933 0.015363 0.083135 -3.020363
2011-08-18 07:18:34 51°20.678 2°49.604 22.3946 0.015363 0.083135 -3.020363
2011-08-18 07:18:39 51°20.694 2°49.592 22.3925 0.015363 0.083135 -3.020363
2011-08-18 07:18:43 51°20.707 2°49.582 22.409 0.015363 0.083135 -3.020363
2011-08-18 07:18:49 51°20.726 2°49.568 22.4008 0.015363 0.083136 -3.020363
2011-08-18 07:18:54 51°20.742 2°49.556 22.4098 0.015363 0.083136 -3.020363
2011-08-18 07:18:59 51°20.759 2°49.543 22.4084 0.015363 0.083136 -3.020363
2011-08-18 07:19:03 51°20.772 2°49.534 22.406 0.015363 0.083137 -3.020363
2011-08-18 07:19:09 51°20.791 2°49.519 22.4041 0.015363 0.083137 -3.020363
2011-08-18 07:19:14 51°20.807 2°49.506 22.407 0.015363 0.083137 -3.020363
2011-08-18 07:19:19 51°20.823 2°49.494 22.4105 0.015363 0.083137 -3.020363
2011-08-18 07:19:23 51°20.837 2°49.484 22.41 0.015363 0.083139 -3.020363
2011-08-18 07:19:29 51°20.856 2°49.47 22.4094 0.015363 0.083139 -3.020363
2011-08-18 07:19:34 51°20.873 2°49.458 22.4143 0.015363 0.083139 -3.020363
2011-08-18 07:19:39 51°20.889 2°49.446 22.4143 0.015363 0.083139 -3.020363
2011-08-18 07:19:43 51°20.902 2°49.437 22.4266 0.015363 0.08314 -3.020363
2011-08-18 07:19:48 51°20.919 2°49.425 22.4048 0.015363 0.08314 -3.020363
2011-08-18 07:19:53 51°20.935 2°49.413 22.407 0.015363 0.08314 -3.020363
2011-08-18 07:19:59 51°20.955 2°49.398 22.4276 0.015363 0.08314 -3.020363
2011-08-18 07:20:03 51°20.968 2°49.388 22.4317 0.015363 0.08314 -3.020363
2011-08-18 07:20:08 51°20.984 2°49.375 22.4004 0.015363 0.083141 -3.020363
2011-08-18 07:20:13 51°21 2°49.362 22.4157 0.015363 0.083141 -3.020363
2011-08-18 07:20:19 51°21.02 2°49.347 22.4167 0.015363 0.083142 -3.020363
2011-08-18 07:20:23 51°21.033 2°49.337 22.4075 0.015363 0.083143 -3.020363
2011-08-18 07:20:28 51°21.049 2°49.325 22.4263 0.015363 0.083143 -3.020363
2011-08-18 07:20:33 51°21.066 2°49.312 22.4247 0.015363 0.083143 -3.020363
2011-08-18 07:20:39 51°21.085 2°49.298 22.416 0.015363 0.083143 -3.020363
2011-08-18 07:20:43 51°21.098 2°49.288 22.4105 0.015363 0.083145 -3.020363
2011-08-18 07:20:49 51°21.118 2°49.273 22.4268 0.015363 0.083145 -3.020363
2011-08-18 07:20:54 51°21.134 2°49.261 22.4296 0.015363 0.083145 -3.020363
2011-08-18 07:20:59 51°21.151 2°49.249 22.4286 0.015363 0.083145 -3.020363
2011-08-18 07:21:03 51°21.164 2°49.239 22.4272 0.015363 0.083145 -3.020363
2011-08-18 07:21:09 51°21.183 2°49.225 22.425 0.015363 0.083145 -3.020363
2011-08-18 07:21:14 51°21.2 2°49.212 22.4366 0.015363 0.083145 -3.020363
2011-08-18 07:21:19 51°21.216 2°49.2 22.427 0.015363 0.083146 -3.020363
2011-08-18 07:21:23 51°21.229 2°49.19 22.4231 0.015363 0.083146 -3.020363
2011-08-18 07:21:28 51°21.245 2°49.177 22.4238 0.015363 0.083146 -3.020363
2011-08-18 07:21:34 51°21.265 2°49.162 22.4383 0.015363 0.083146 -3.020363
2011-08-18 07:21:39 51°21.281 2°49.15 22.4198 0.015363 0.083147 -3.020363
2011-08-18 07:21:43 51°21.294 2°49.14 22.4184 0.015363 0.083147 -3.020363
2011-08-18 07:21:48 51°21.311 2°49.128 22.4358 0.015363 0.083147 -3.020363
2011-08-18 07:21:54 51°21.33 2°49.113 22.4327 0.015363 0.083148 -3.020363
2011-08-18 07:21:59 51°21.346 2°49.101 22.4209 0.015363 0.083148 -3.020363
2011-08-18 07:22:03 51°21.36 2°49.092 22.4395 0.015363 0.083148 -3.020363
2011-08-18 07:22:09 51°21.379 2°49.077 22.4312 0.015363 0.083148 -3.020363
2011-08-18 07:22:14 51°21.396 2°49.065 22.4339 0.015363 0.083148 -3.020363
2011-08-18 07:22:19 51°21.412 2°49.053 22.4303 0.015363 0.083148 -3.020363
2011-08-18 07:22:23 51°21.425 2°49.044 22.4443 0.015363 0.083149 -3.020363
2011-08-18 07:22:28 51°21.442 2°49.032 22.445 0.015363 0.083149 -3.020363
2011-08-18 07:22:34 51°21.462 2°49.019 22.4376 0.015363 0.083149 -3.020363
2011-08-18 07:22:39 51°21.478 2°49.007 22.4427 0.015363 0.083149 -3.020363
2011-08-18 07:22:43 51°21.492 2°48.998 22.4437 0.015363 0.083151 -3.020363
2011-08-18 07:22:49 51°21.512 2°48.984 22.4357 0.015363 0.083151 -3.020363
2011-08-18 07:22:54 51°21.528 2°48.972 22.4476 0.015363 0.083152 -3.020363
2011-08-18 07:22:59 51°21.544 2°48.96 22.4278 0.015363 0.083152 -3.020363
2011-08-18 07:23:03 51°21.558 2°48.951 22.4518 0.015363 0.083152 -3.020363
2011-08-18 07:23:09 51°21.577 2°48.937 22.4604 0.015363 0.083152 -3.020363
2011-08-18 07:23:14 51°21.594 2°48.924 22.4489 0.015363 0.083153 -3.020363
2011-08-18 07:23:19 51°21.61 2°48.912 22.4552 0.015363 0.083153 -3.020363
2011-08-18 07:23:23 51°21.623 2°48.901 22.4359 0.015363 0.083153 -3.020363
2011-08-18 07:23:29 51°21.642 2°48.885 22.4507 0.015363 0.083153 -3.020363
2011-08-18 07:23:34 51°21.658 2°48.872 22.4489 0.015363 0.083153 -3.020363
2011-08-18 07:23:39 51°21.674 2°48.859 22.4516 0.015363 0.083153 -3.020363
2011-08-18 07:23:43 51°21.687 2°48.849 22.4591 0.015363 0.083154 -3.020363
2011-08-18 07:23:48 51°21.703 2°48.836 22.4458 0.015363 0.083154 -3.020363
2011-08-18 07:23:54 51°21.722 2°48.821 22.4515 0.015363 0.083156 -3.020363
2011-08-18 07:23:59 51°21.739 2°48.809 22.4543 0.015363 0.083156 -3.020363
2011-08-18 07:24:03 51°21.752 2°48.799 22.4403 0.015363 0.083156 -3.020363
2011-08-18 07:24:08 51°21.768 2°48.787 22.456 0.015363 0.083156 -3.020363
2011-08-18 07:24:14 51°21.788 2°48.773 22.4654 0.015363 0.083156 -3.020363
2011-08-18 07:24:19 51°21.804 2°48.761 22.465 0.015363 0.083157 -3.020363
2011-08-18 07:24:23 51°21.818 2°48.751 22.46 0.015363 0.083158 -3.020363
2011-08-18 07:24:28 51°21.834 2°48.738 22.452 0.015363 0.083158 -3.020363
2011-08-18 07:24:34 51°21.854 2°48.724 22.4569 0.015363 0.083158 -3.020363
2011-08-18 07:24:39 51°21.871 2°48.711 22.4441 0.015363 0.083158 -3.020363
2011-08-18 07:24:43 51°21.884 2°48.702 22.4629 0.015363 0.083158 -3.020363
2011-08-18 07:24:49 51°21.904 2°48.687 22.4588 0.015363 0.083159 -3.020363
2011-08-18 07:24:54 51°21.92 2°48.675 22.4696 0.015363 0.083159 -3.020363
2011-08-18 07:24:59 51°21.937 2°48.663 22.4505 0.015363 0.083159 -3.020363
2011-08-18 07:25:03 51°21.95 2°48.653 22.4703 0.015363 0.083159 -3.020363
2011-08-18 07:25:08 51°21.966 2°48.642 22.4554 0.015363 0.08316 -3.020363
2011-08-18 07:25:14 51°21.986 2°48.627 22.4731 0.015363 0.08316 -3.020363
2011-08-18 07:25:19 51°22.003 2°48.615 22.4777 0.015363 0.08316 -3.020363
2011-08-18 07:25:23 51°22.016 2°48.606 22.4559 0.015363 0.083162 -3.020363
2011-08-18 07:25:29 51°22.036 2°48.592 22.4577 0.015363 0.083162 -3.020363
2011-08-18 07:25:34 51°22.052 2°48.581 22.4723 0.015363 0.083162 -3.020363
2011-08-18 07:25:39 51°22.069 2°48.569 22.4577 0.015363 0.083162 -3.020363
2011-08-18 07:25:43 51°22.082 2°48.56 22.4666 0.015363 0.083163 -3.020363
2011-08-18 07:25:49 51°22.101 2°48.545 22.4794 0.015363 0.083163 -3.020363
2011-08-18 07:25:54 51°22.118 2°48.533 22.4735 0.015363 0.083163 -3.020363
2011-08-18 07:25:59 51°22.134 2°48.521 22.4831 0.015363 0.083163 -3.020363
2011-08-18 07:26:03 51°22.147 2°48.511 22.4583 0.015363 0.083163 -3.020363
2011-08-18 07:26:09 51°22.166 2°48.496 22.4641 0.015363 0.083164 -3.020363
2011-08-18 07:26:14 51°22.182 2°48.483 22.4693 0.015363 0.083164 -3.020363
2011-08-18 07:26:19 51°22.198 2°48.47 22.4858 0.015363 0.083165 -3.020363
2011-08-18 07:26:23 51°22.211 2°48.461 22.4642 0.015363 0.083165 -3.020363
2011-08-18 07:26:28 51°22.227 2°48.448 22.4834 0.015363 0.083165 -3.020363
2011-08-18 07:26:34 51°22.246 2°48.433 22.4754 0.015363 0.083165 -3.020363
2011-08-18 07:26:39 51°22.262 2°48.421 22.4799 0.015363 0.083166 -3.020363
2011-08-18 07:26:43 51°22.275 2°48.411 22.4874 0.015363 0.083166 -3.020363
2011-08-18 07:26:49 51°22.295 2°48.398 22.4882 0.015363 0.083166 -3.020363
2011-08-18 07:26:54 51°22.311 2°48.386 22.4746 0.015363 0.083168 -3.020363
2011-08-18 07:26:59 51°22.327 2°48.376 22.4902 0.015363 0.083168 -3.020363
2011-08-18 07:27:03 51°22.341 2°48.367 22.4781 0.015363 0.083168 -3.020363
2011-08-18 07:27:08 51°22.357 2°48.356 22.4908 0.015363 0.083169 -3.020363
2011-08-18 07:27:14 51°22.377 2°48.343 22.4845 0.015363 0.083169 -3.020363
2011-08-18 07:27:19 51°22.393 2°48.332 22.4912 0.015363 0.083169 -3.020363
2011-08-18 07:27:23 51°22.406 2°48.324 22.4973 0.015363 0.083169 -3.020363
2011-08-18 07:27:29 51°22.426 2°48.311 22.4864 0.015363 0.083169 -3.020363
2011-08-18 07:27:34 51°22.442 2°48.299 22.4983 0.015363 0.08317 -3.020363
2011-08-18 07:27:39 51°22.458 2°48.287 22.4816 0.015363 0.083171 -3.020363
2011-08-18 07:27:43 51°22.471 2°48.277 22.4987 0.015363 0.083172 -3.020363
2011-08-18 07:27:49 51°22.49 2°48.263 22.4891 0.015363 0.083172 -3.020363
2011-08-18 07:27:54 51°22.506 2°48.251 22.4978 0.015363 0.083172 -3.020363
2011-08-18 07:27:59 51°22.522 2°48.239 22.5054 0.015363 0.083172 -3.020363
2011-08-18 07:28:03 51°22.535 2°48.228 22.5065 0.015363 0.083172 -3.020363
2011-08-18 07:28:08 51°22.551 2°48.216 22.498 0.015363 0.083174 -3.020363
2011-08-18 07:28:14 51°22.57 2°48.201 22.4952 0.015363 0.083174 -3.020363
2011-08-18 07:28:19 51°22.586 2°48.189 22.498 0.015363 0.083175 -3.020363
2011-08-18 07:28:23 51°22.598 2°48.179 22.5034 0.015363 0.083176 -3.020363
2011-08-18 07:28:29 51°22.617 2°48.164 22.4879 0.015363 0.083176 -3.020363
2011-08-18 07:28:34 51°22.634 2°48.151 22.5061 0.015363 0.083175 -3.020363
2011-08-18 07:28:39 51°22.649 2°48.139 22.494 0.015363 0.083176 -3.020363
2011-08-18 07:28:43 51°22.662 2°48.129 22.4968 0.015363 0.083176 -3.020363
2011-08-18 07:28:48 51°22.679 2°48.117 22.5061 0.015363 0.083176 -3.020363
2011-08-18 07:28:54 51°22.698 2°48.103 22.5137 0.015363 0.083177 -3.020363
2011-08-18 07:28:59 51°22.714 2°48.091 22.5018 0.015363 0.083177 -3.020363
2011-08-18 07:29:03 51°22.726 2°48.081 22.5072 0.015363 0.083178 -3.020363
2011-08-18 07:29:09 51°22.746 2°48.067 22.4995 0.015363 0.083178 -3.020363
2011-08-18 07:29:14 51°22.761 2°48.054 22.5061 0.015363 0.083178 -3.020363
2011-08-18 07:29:19 51°22.778 2°48.041 22.5003 0.015363 0.08318 -3.020363
2011-08-18 07:29:23 51°22.79 2°48.031 22.5027 0.015363 0.08318 -3.020363
2011-08-18 07:29:28 51°22.806 2°48.02 22.5078 0.015363 0.08318 -3.020363
2011-08-18 07:29:34 51°22.825 2°48.006 22.5137 0.015363 0.08318 -3.020363
2011-08-18 07:29:39 51°22.842 2°47.994 22.5229 0.015363 0.083181 -3.020363
2011-08-18 07:29:43 51°22.855 2°47.985 22.5051 0.015363 0.083182 -3.020363
2011-08-18 07:29:49 51°22.874 2°47.972 22.5171 0.015363 0.083182 -3.020363
2011-08-18 07:29:54 51°22.89 2°47.96 22.5104 0.015363 0.083183 -3.020363
2011-08-18 07:29:59 51°22.907 2°47.949 22.5197 0.015363 0.083183 -3.020363
2011-08-18 07:30:03 51°22.92 2°47.941 22.5117 0.015363 0.083183 -3.020363
2011-08-18 07:30:09 51°22.94 2°47.927 22.5115 0.015363 0.083183 -3.020363
2011-08-18 07:30:14 51°22.956 2°47.915 22.5246 0.015363 0.083185 -3.020363
2011-08-18 07:30:19 51°22.971 2°47.903 22.5222 0.015363 0.083191 -3.020363
2011-08-18 07:30:23 51°22.984 2°47.893 22.5158 0.015363 0.083191 -3.020363
2011-08-18 07:30:29 51°23.004 2°47.88 22.5204 0.015363 0.083191 -3.020363
2011-08-18 07:30:34 51°23.02 2°47.868 22.5222 0.015363 0.083191 -3.020363
2011-08-18 07:30:39 51°23.037 2°47.857 22.5248 0.015363 0.083189 -3.020363
2011-08-18 07:30:43 51°23.05 2°47.848 22.5186 0.015363 0.083189 -3.020363
2011-08-18 07:30:48 51°23.066 2°47.837 22.5156 0.015363 0.083191 -3.020363
2011-08-18 07:30:54 51°23.086 2°47.823 22.5273 0.015363 0.083189 -3.020363
2011-08-18 07:30:59 51°23.102 2°47.811 22.5248 0.015363 0.083189 -3.020363
2011-08-18 07:31:03 51°23.115 2°47.802 22.5286 0.015363 0.083191 -3.020363
2011-08-18 07:31:09 51°23.135 2°47.789 22.5167 0.015363 0.083193 -3.020363
2011-08-18 07:31:14 51°23.152 2°47.777 22.5236 0.015363 0.083193 -3.020363
2011-08-18 07:31:19 51°23.168 2°47.766 22.5406 0.015363 0.083193 -3.020363
2011-08-18 07:31:23 51°23.181 2°47.758 22.5313 0.015363 0.083193 -3.020363
2011-08-18 07:31:28 51°23.197 2°47.746 22.5301 0.015363 0.083193 -3.020363
2011-08-18 07:31:34 51°23.217 2°47.732 22.5371 0.015363 0.083193 -3.020363
2011-08-18 07:31:39 51°23.233 2°47.721 22.5391 0.015363 0.083194 -3.020363
2011-08-18 07:31:43 51°23.246 2°47.711 22.5239 0.015363 0.083194 -3.020363
2011-08-18 07:31:49 51°23.265 2°47.696 22.5263 0.015363 0.083195 -3.020363
2011-08-18 07:31:54 51°23.281 2°47.683 22.529 0.015363 0.083195 -3.020363
2011-08-18 07:31:59 51°23.297 2°47.67 22.5382 0.015363 0.083195 -3.020363
2011-08-18 07:32:03 51°23.31 2°47.66 22.5315 0.015363 0.083197 -3.020363
2011-08-18 07:32:09 51°23.329 2°47.644 22.5356 0.015363 0.083197 -3.020363
2011-08-18 07:32:14 51°23.346 2°47.632 22.5259 0.015363 0.083198 -3.020363
2011-08-18 07:32:19 51°23.361 2°47.62 22.5429 0.015363 0.083198 -3.020363
2011-08-18 07:32:23 51°23.374 2°47.61 22.5234 0.015363 0.083198 -3.020363
2011-08-18 07:32:29 51°23.394 2°47.596 22.545 0.015363 0.083198 -3.020363
2011-08-18 07:32:34 51°23.41 2°47.584 22.5269 0.015363 0.083199 -3.020363
2011-08-18 07:32:39 51°23.426 2°47.572 22.5397 0.015363 0.083199 -3.020363
2011-08-18 07:32:43 51°23.439 2°47.563 22.5365 0.015363 0.0832 -3.020363
2011-08-18 07:32:48 51°23.456 2°47.551 22.5521 0.015363 0.0832 -3.020363
2011-08-18 07:32:54 51°23.475 2°47.538 22.5456 0.015363 0.083201 -3.020363
2011-08-18 07:32:59 51°23.492 2°47.526 22.5491 0.015363 0.083201 -3.020363
2011-08-18 07:33:03 51°23.505 2°47.517 22.5433 0.015363 0.083201 -3.020363
2011-08-18 07:33:09 51°23.524 2°47.504 22.555 0.015363 0.083203 -3.020363
2011-08-18 07:33:14 51°23.54 2°47.492 22.5529 0.015363 0.083204 -3.020363
2011-08-18 07:33:19 51°23.556 2°47.481 22.5507 0.015363 0.083204 -3.020363
2011-08-18 07:33:23 51°23.569 2°47.472 22.5609 0.015363 0.083205 -3.020363
2011-08-18 07:33:28 51°23.586 2°47.46 22.547 0.015363 0.083205 -3.020363
2011-08-18 07:33:34 51°23.604 2°47.445 22.5374 0.015363 0.083205 -3.020363
2011-08-18 07:33:39 51°23.62 2°47.432 22.5586 0.015363 0.083206 -3.020363
2011-08-18 07:33:43 51°23.633 2°47.422 22.5504 0.015363 0.083206 -3.020363
2011-08-18 07:33:49 51°23.652 2°47.408 22.5533 0.015363 0.083207 -3.020363
2011-08-18 07:33:54 51°23.668 2°47.396 22.5496 0.015363 0.083207 -3.020363
2011-08-18 07:33:59 51°23.685 2°47.384 22.5446 0.015363 0.083207 -3.020363
2011-08-18 07:34:03 51°23.697 2°47.374 22.5572 0.015363 0.083209 -3.020363
2011-08-18 07:34:09 51°23.716 2°47.36 22.5604 0.015363 0.083209 -3.020363
2011-08-18 07:34:14 51°23.732 2°47.348 22.5549 0.015363 0.08321 -3.020363
2011-08-18 07:34:19 51°23.748 2°47.336 22.5651 0.015363 0.08321 -3.020363
2011-08-18 07:34:23 51°23.761 2°47.327 22.5435 0.015363 0.08321 -3.020363
2011-08-18 07:34:29 51°23.781 2°47.313 22.5531 0.015363 0.08321 -3.020363
2011-08-18 07:34:34 51°23.797 2°47.302 22.5595 0.015363 0.083211 -3.020363
2011-08-18 07:34:39 51°23.813 2°47.29 22.5577 0.015363 0.083212 -3.020363
2011-08-18 07:34:43 51°23.826 2°47.282 22.5735 0.015363 0.083212 -3.020363
2011-08-18 07:34:49 51°23.846 2°47.269 22.5595 0.015363 0.083214 -3.020363
2011-08-18 07:34:54 51°23.862 2°47.258 22.5662 0.015363 0.083215 -3.020363
2011-08-18 07:34:59 51°23.879 2°47.247 22.5742 0.015363 0.083215 -3.020363
2011-08-18 07:35:03 51°23.892 2°47.238 22.5596 0.015363 0.083215 -3.020363
2011-08-18 07:35:09 51°23.911 2°47.226 22.578 0.015363 0.083216 -3.020363
2011-08-18 07:35:14 51°23.928 2°47.214 22.5731 0.015363 0.083216 -3.020363
2011-08-18 07:35:19 51°23.944 2°47.203 22.5613 0.015363 0.083217 -3.020363
2011-08-18 07:35:23 51°23.957 2°47.194 22.5804 0.015363 0.083217 -3.020363
2011-08-18 07:35:28 51°23.973 2°47.183 22.5801 0.015363 0.083217 -3.020363
2011-08-18 07:35:34 51°23.993 2°47.169 22.561 0.015363 0.083217 -3.020363
2011-08-18 07:35:39 51°24.009 2°47.158 22.5765 0.015363 0.083218 -3.020363
2011-08-18 07:35:43 51°24.022 2°47.148 22.571 0.015363 0.083218 -3.020363
2011-08-18 07:35:49 51°24.041 2°47.134 22.5757 0.015363 0.08322 -3.020363
2011-08-18 07:35:54 51°24.058 2°47.122 22.5717 0.015363 0.083221 -3.020363
2011-08-18 07:35:59 51°24.074 2°47.109 22.5782 0.015363 0.083221 -3.020363
2011-08-18 07:36:03 51°24.086 2°47.099 22.5827 0.015363 0.083221 -3.020363
2011-08-18 07:36:08 51°24.102 2°47.087 22.5669 0.015363 0.083222 -3.020363
2011-08-18 07:36:14 51°24.121 2°47.071 22.5819 0.015363 0.083222 -3.020363
2011-08-18 07:36:19 51°24.137 2°47.058 22.5643 0.015363 0.083223 -3.020363
2011-08-18 07:36:23 51°24.15 2°47.048 22.584 0.015363 0.083223 -3.020363
2011-08-18 07:36:29 51°24.169 2°47.033 22.5836 0.015363 0.083223 -3.020363
2011-08-18 07:36:34 51°24.185 2°47.02 22.5709 0.015363 0.083223 -3.020363
2011-08-18 07:36:39 51°24.201 2°47.008 22.586 0.015363 0.083224 -3.020363
2011-08-18 07:36:43 51°24.214 2°46.999 22.5766 0.015363 0.083226 -3.020363
2011-08-18 07:36:49 51°24.233 2°46.984 22.574 0.015363 0.083226 -3.020363
2011-08-18 07:36:54 51°24.249 2°46.973 22.5891 0.015363 0.083227 -3.020363
2011-08-18 07:36:59 51°24.265 2°46.961 22.5795 0.015363 0.083227 -3.020363
2011-08-18 07:37:03 51°24.278 2°46.952 22.5819 0.015363 0.083228 -3.020363
2011-08-18 07:37:09 51°24.298 2°46.939 22.5789 0.015363 0.083227 -3.020363
2011-08-18 07:37:14 51°24.314 2°46.928 22.5853 0.015363 0.083227 -3.020363
2011-08-18 07:37:19 51°24.33 2°46.918 22.6128 0.015363 0.083227 -3.020363
2011-08-18 07:37:23 51°24.343 2°46.909 22.5948 0.015363 0.083228 -3.020363
2011-08-18 07:37:28 51°24.359 2°46.899 22.5864 0.015363 0.083228 -3.020363
2011-08-18 07:37:34 51°24.379 2°46.886 22.5954 0.015363 0.083229 -3.020363
2011-08-18 07:37:39 51°24.395 2°46.874 22.5956 0.015363 0.08323 -3.020363
2011-08-18 07:37:43 51°24.408 2°46.866 22.6044 0.015363 0.08323 -3.020363
2011-08-18 07:37:49 51°24.427 2°46.852 22.5931 0.015363 0.083232 -3.020363
2011-08-18 07:37:54 51°24.443 2°46.84 22.6027 0.015363 0.083233 -3.020363
2011-08-18 07:37:59 51°24.458 2°46.828 22.6087 0.015363 0.083233 -3.020363
2011-08-18 07:38:03 51°24.471 2°46.818 22.5911 0.015363 0.083234 -3.020363
2011-08-18 07:38:08 51°24.486 2°46.805 22.6049 0.015363 0.083234 -3.020363
2011-08-18 07:38:14 51°24.505 2°46.79 22.5993 0.015363 0.083235 -3.020363
2011-08-18 07:38:19 51°24.521 2°46.777 22.6024 0.015363 0.083235 -3.020363
2011-08-18 07:38:23 51°24.533 2°46.767 22.5893 0.015363 0.083237 -3.020363
2011-08-18 07:38:29 51°24.552 2°46.752 22.6037 0.015363 0.083237 -3.020363
2011-08-18 07:38:34 51°24.567 2°46.738 22.6034 0.015363 0.083238 -3.020363
2011-08-18 07:38:39 51°24.583 2°46.726 22.5941 0.015363 0.083238 -3.020363
2011-08-18 07:38:43 51°24.595 2°46.716 22.6074 0.015363 0.083238 -3.020363
2011-08-18 07:38:49 51°24.614 2°46.701 22.612 0.015363 0.083238 -3.020363
2011-08-18 07:38:54 51°24.63 2°46.689 22.5937 0.015363 0.083238 -3.020363
2011-08-18 07:38:59 51°24.645 2°46.677 22.6196 0.015363 0.083238 -3.020363
2011-08-18 07:39:03 51°24.658 2°46.668 22.6076 0.015363 0.083238 -3.020363
2011-08-18 07:39:09 51°24.677 2°46.653 22.6196 0.015363 0.083239 -3.020363
2011-08-18 07:39:14 51°24.693 2°46.641 22.605 0.015363 0.08324 -3.020363
2011-08-18 07:39:19 51°24.709 2°46.629 22.6027 0.015363 0.08324 -3.020363
2011-08-18 07:39:23 51°24.722 2°46.62 22.6236 0.015363 0.083241 -3.020363
2011-08-18 07:39:29 51°24.741 2°46.605 22.6172 0.015363 0.083241 -3.020363
2011-08-18 07:39:34 51°24.757 2°46.593 22.608 0.015363 0.083243 -3.020363
2011-08-18 07:39:39 51°24.772 2°46.581 22.6015 0.015363 0.083244 -3.020363
2011-08-18 07:39:43 51°24.785 2°46.571 22.6269 0.015363 0.083244 -3.020363
2011-08-18 07:39:49 51°24.805 2°46.557 22.6138 0.015363 0.083245 -3.020363
2011-08-18 07:39:54 51°24.821 2°46.545 22.6029 0.015363 0.083246 -3.020363
2011-08-18 07:39:59 51°24.837 2°46.534 22.6233 0.015363 0.083246 -3.020363
2011-08-18 07:40:03 51°24.85 2°46.525 22.6193 0.015363 0.083246 -3.020363
2011-08-18 07:40:08 51°24.866 2°46.513 22.6337 0.015363 0.083247 -3.020363
2011-08-18 07:40:14 51°24.886 2°46.499 22.6143 0.015363 0.083247 -3.020363
2011-08-18 07:40:19 51°24.902 2°46.488 22.6114 0.015363 0.083249 -3.020363
2011-08-18 07:40:23 51°24.915 2°46.478 22.6317 0.015363 0.083249 -3.020363
2011-08-18 07:40:29 51°24.934 2°46.465 22.6334 0.015363 0.083249 -3.020363
2011-08-18 07:40:34 51°24.951 2°46.454 22.6381 0.015363 0.08325 -3.020363
2011-08-18 07:40:39 51°24.967 2°46.442 22.6242 0.015363 0.083251 -3.020363
2011-08-18 07:40:43 51°24.98 2°46.433 22.6358 0.015363 0.083251 -3.020363
2011-08-18 07:40:49 51°24.999 2°46.419 22.6229 0.015363 0.083252 -3.020363
2011-08-18 07:40:54 51°25.015 2°46.407 22.6288 0.015363 0.083252 -3.020363
2011-08-18 07:40:59 51°25.032 2°46.395 22.6335 0.015363 0.083252 -3.020363
2011-08-18 07:41:03 51°25.045 2°46.386 22.634 0.015363 0.083253 -3.020363
2011-08-18 07:41:09 51°25.064 2°46.371 22.6462 0.015363 0.083253 -3.020363
2011-08-18 07:41:14 51°25.08 2°46.358 22.6415 0.015363 0.083255 -3.020363
2011-08-18 07:41:19 51°25.095 2°46.346 22.6308 0.015363 0.083255 -3.020363
2011-08-18 07:41:23 51°25.108 2°46.335 22.6367 0.015363 0.083256 -3.020363
2011-08-18 07:41:29 51°25.127 2°46.319 22.6326 0.015363 0.083256 -3.020363
2011-08-18 07:41:34 51°25.142 2°46.307 22.6198 0.015363 0.083257 -3.020363
2011-08-18 07:41:39 51°25.158 2°46.293 22.6347 0.015363 0.083257 -3.020363
2011-08-18 07:41:43 51°25.17 2°46.283 22.6293 0.015363 0.083257 -3.020363
2011-08-18 07:41:49 51°25.189 2°46.268 22.6329 0.015363 0.083257 -3.020363
2011-08-18 07:41:54 51°25.205 2°46.254 22.6463 0.015363 0.083257 -3.020363
2011-08-18 07:41:59 51°25.221 2°46.242 22.6322 0.015363 0.083257 -3.020363
2011-08-18 07:42:03 51°25.234 2°46.232 22.6363 0.015363 0.083256 -3.020363
2011-08-18 07:42:08 51°25.25 2°46.218 22.639 0.015363 0.083255 -3.020363
2011-08-18 07:42:14 51°25.269 2°46.204 22.6431 0.015363 0.083256 -3.020363
2011-08-18 07:42:19 51°25.286 2°46.191 22.6338 0.015363 0.083257 -3.020363
2011-08-18 07:42:23 51°25.299 2°46.181 22.6346 0.015363 0.083258 -3.020363
2011-08-18 07:42:29 51°25.318 2°46.167 22.6372 0.015363 0.083258 -3.020363
2011-08-18 07:42:34 51°25.335 2°46.156 22.6355 0.015363 0.083258 -3.020363
2011-08-18 07:42:39 51°25.352 2°46.145 22.6371 0.015363 0.08326 -3.020363
2011-08-18 07:42:43 51°25.365 2°46.137 22.6522 0.015363 0.08326 -3.020363
2011-08-18 07:42:48 51°25.382 2°46.127 22.6505 0.015363 0.083261 -3.020363
2011-08-18 07:42:54 51°25.401 2°46.115 22.6509 0.015363 0.083261 -3.020363
2011-08-18 07:42:59 51°25.418 2°46.105 22.6509 0.015363 0.083261 -3.020363
2011-08-18 07:43:03 51°25.432 2°46.097 22.6478 0.015363 0.083261 -3.020363
2011-08-18 07:43:09 51°25.452 2°46.085 22.6605 0.015363 0.083262 -3.020363
2011-08-18 07:43:14 51°25.469 2°46.076 22.659 0.015363 0.083262 -3.020363
2011-08-18 07:43:19 51°25.485 2°46.066 22.6584 0.015363 0.083262 -3.020363
2011-08-18 07:43:23 51°25.499 2°46.057 22.6674 0.015363 0.083263 -3.020363
2011-08-18 07:43:29 51°25.519 2°46.045 22.6367 0.015363 0.083263 -3.020363
2011-08-18 07:43:34 51°25.535 2°46.034 22.6617 0.015363 0.083263 -3.020363
2011-08-18 07:43:39 51°25.552 2°46.023 22.6502 0.015363 0.083263 -3.020363
2011-08-18 07:43:43 51°25.565 2°46.013 22.6436 0.015363 0.083263 -3.020363
2011-08-18 07:43:49 51°25.585 2°46 22.644 0.015363 0.083264 -3.020363
2011-08-18 07:43:54 51°25.601 2°45.988 22.6739 0.015363 0.083264 -3.020363
2011-08-18 07:43:59 51°25.618 2°45.977 22.6612 0.015363 0.083264 -3.020363
2011-08-18 07:44:03 51°25.631 2°45.968 22.6693 0.015363 0.083264 -3.020363
2011-08-18 07:44:08 51°25.647 2°45.955 22.6482 0.015363 0.083264 -3.020363
2011-08-18 07:44:14 51°25.666 2°45.941 22.6533 0.015363 0.083266 -3.020363
2011-08-18 07:44:19 51°25.682 2°45.928 22.682 0.015363 0.083266 -3.020363
2011-08-18 07:44:23 51°25.695 2°45.918 22.675 0.015363 0.083266 -3.020363
2011-08-18 07:44:29 51°25.715 2°45.903 22.675 0.015363 0.083266 -3.020363
2011-08-18 07:44:34 51°25.731 2°45.89 22.6626 0.015363 0.083267 -3.020363
2011-08-18 07:44:39 51°25.747 2°45.877 22.6709 0.015363 0.083268 -3.020363
2011-08-18 07:44:43 51°25.76 2°45.867 22.6712 0.015363 0.083267 -3.020363
2011-08-18 07:44:48 51°25.776 2°45.854 22.6693 0.015363 0.083268 -3.020363
2011-08-18 07:44:54 51°25.795 2°45.839 22.6763 0.015363 0.083268 -3.020363
2011-08-18 07:44:59 51°25.812 2°45.826 22.6746 0.015363 0.083268 -3.020363
2011-08-18 07:45:03 51°25.824 2°45.816 22.6657 0.015363 0.083273 -3.020363
2011-08-18 07:45:08 51°25.841 2°45.804 22.6753 0.015363 0.083272 -3.020363
2011-08-18 07:45:14 51°25.86 2°45.789 22.6789 0.015363 0.083272 -3.020363
2011-08-18 07:45:19 51°25.877 2°45.777 22.6695 0.015363 0.08327 -3.020363
2011-08-18 07:45:23 51°25.89 2°45.766 22.6745 0.015363 0.08327 -3.020363
2011-08-18 07:45:29 51°25.909 2°45.752 22.688 0.015363 0.08327 -3.020363
2011-08-18 07:45:34 51°25.925 2°45.74 22.6829 0.015363 0.08327 -3.020363
2011-08-18 07:45:39 51°25.941 2°45.728 22.6695 0.01526 0.082737 -3.020363
2011-08-18 07:45:43 51°25.954 2°45.718 22.6877 0.015363 0.08327 -3.020363
2011-08-18 07:45:49 51°25.974 2°45.704 22.6651 0.01526 0.082737 -3.020363
2011-08-18 07:45:54 51°25.99 2°45.692 22.6791 0.015363 0.083272 -3.020363
2011-08-18 07:45:59 51°26.007 2°45.68 22.6899 0.015363 0.083272 -3.020363
2011-08-18 07:46:03 51°26.02 2°45.67 22.6904 0.01526 0.082738 -3.020363
2011-08-18 07:46:09 51°26.039 2°45.656 22.682 0.015363 0.083272 -3.020363
2011-08-18 07:46:14 51°26.055 2°45.644 22.685 0.01526 0.082738 -3.020363
2011-08-18 07:46:19 51°26.071 2°45.633 22.6858 0.01526 0.082739 -3.020363
2011-08-18 07:46:23 51°26.085 2°45.623 22.676 0.01526 0.082739 -3.020363
2011-08-18 07:46:28 51°26.101 2°45.611 22.681 0.01526 0.082739 -3.020363
2011-08-18 07:46:34 51°26.12 2°45.597 22.6879 0.01526 0.082739 -3.020363
2011-08-18 07:46:39 51°26.136 2°45.585 22.6975 0.01526 0.082741 -3.020363
2011-08-18 07:46:43 51°26.149 2°45.576 22.6823 0.01526 0.082741 -3.020363
2011-08-18 07:46:49 51°26.168 2°45.563 22.6929 0.01526 0.082741 -3.020363
2011-08-18 07:46:54 51°26.185 2°45.552 22.6922 0.01526 0.082741 -3.020363
2011-08-18 07:46:59 51°26.201 2°45.541 22.6795 0.01526 0.082741 -3.020363
2011-08-18 07:47:03 51°26.214 2°45.532 22.6993 0.01526 0.082742 -3.020363
2011-08-18 07:47:08 51°26.23 2°45.522 22.6787 0.01526 0.082741 -3.020363
2011-08-18 07:47:14 51°26.25 2°45.508 22.7054 0.01526 0.082742 -3.020363
2011-08-18 07:47:19 51°26.265 2°45.497 22.6808 0.01526 0.082742 -3.020363
2011-08-18 07:47:23 51°26.278 2°45.488 22.7115 0.01526 0.082743 -3.020363
2011-08-18 07:47:28 51°26.294 2°45.476 22.6963 0.01526 0.082743 -3.020363
2011-08-18 07:47:34 51°26.313 2°45.462 22.7004 0.01526 0.082742 -3.020363
2011-08-18 07:47:39 51°26.329 2°45.45 22.687 0.01526 0.082743 -3.020363
2011-08-18 07:47:43 51°26.342 2°45.44 22.7028 0.01526 0.082743 -3.020363
2011-08-18 07:47:49 51°26.361 2°45.426 22.7194 0.01526 0.082743 -3.020363
2011-08-18 07:47:54 51°26.376 2°45.413 22.6991 0.01526 0.082744 -3.020363
2011-08-18 07:47:59 51°26.392 2°45.401 22.7013 0.01526 0.082744 -3.020363
2011-08-18 07:48:03 51°26.405 2°45.39 22.7128 0.01526 0.082744 -3.020363
2011-08-18 07:48:08 51°26.42 2°45.377 22.6852 0.01526 0.082743 -3.020363
2011-08-18 07:48:14 51°26.439 2°45.362 22.7084 0.01526 0.082744 -3.020363
2011-08-18 07:48:19 51°26.455 2°45.349 22.7099 0.01526 0.082744 -3.020363
2011-08-18 07:48:23 51°26.468 2°45.339 22.7018 0.01526 0.082745 -3.020363
2011-08-18 07:48:29 51°26.487 2°45.324 22.7118 0.01526 0.082745 -3.020363
2011-08-18 07:48:34 51°26.502 2°45.312 22.7072 0.01526 0.082747 -3.020363
2011-08-18 07:48:39 51°26.518 2°45.299 22.7158 0.01526 0.082745 -3.020363
2011-08-18 07:48:43 51°26.53 2°45.29 22.7119 0.01526 0.082745 -3.020363
2011-08-18 07:48:48 51°26.546 2°45.278 22.7062 0.01526 0.082745 -3.020363
2011-08-18 07:48:54 51°26.565 2°45.263 22.7164 0.01526 0.082745 -3.020363
2011-08-18 07:48:59 51°26.581 2°45.251 22.6959 0.01526 0.082745 -3.020363
2011-08-18 07:49:03 51°26.594 2°45.241 22.7053 0.01526 0.082747 -3.020363
2011-08-18 07:49:08 51°26.61 2°45.229 22.7097 0.01526 0.082747 -3.020363
2011-08-18 07:49:14 51°26.629 2°45.214 22.7068 0.01526 0.082747 -3.020363
2011-08-18 07:49:19 51°26.644 2°45.202 22.7254 0.01526 0.082747 -3.020363
2011-08-18 07:49:23 51°26.658 2°45.193 22.7129 0.01526 0.082748 -3.020363
2011-08-18 07:49:28 51°26.673 2°45.181 22.7142 0.01526 0.082748 -3.020363
2011-08-18 07:49:34 51°26.693 2°45.167 22.7166 0.01526 0.082748 -3.020363
2011-08-18 07:49:39 51°26.709 2°45.155 22.7142 0.01526 0.082748 -3.020363
2011-08-18 07:49:43 51°26.721 2°45.145 22.7134 0.01526 0.082749 -3.020363
2011-08-18 07:49:48 51°26.738 2°45.133 22.7048 0.01526 0.082749 -3.020363
2011-08-18 07:49:54 51°26.757 2°45.118 22.7147 0.01526 0.082749 -3.020363
2011-08-18 07:49:59 51°26.773 2°45.105 22.7312 0.01526 0.082749 -3.020363
2011-08-18 07:50:04 51°26.789 2°45.094 22.7058 0.01526 0.082749 -3.020363
2011-08-18 07:50:09 51°26.805 2°45.082 22.7157 0.01526 0.082749 -3.020363
2011-08-18 07:50:14 51°26.821 2°45.07 22.7137 0.01526 0.082749 -3.020363
2011-08-18 07:50:19 51°26.837 2°45.059 22.7274 0.01526 0.08275 -3.020363
2011-08-18 07:50:23 51°26.85 2°45.049 22.731 0.01526 0.082749 -3.020363
2011-08-18 07:50:28 51°26.866 2°45.038 22.7387 0.01526 0.082749 -3.020363
2011-08-18 07:50:34 51°26.886 2°45.024 22.7186 0.01526 0.08275 -3.020363
2011-08-18 07:50:39 51°26.901 2°45.012 22.7429 0.01526 0.08275 -3.020363
2011-08-18 07:50:43 51°26.914 2°45.003 22.7271 0.01526 0.08275 -3.020363
2011-08-18 07:50:49 51°26.934 2°44.988 22.7335 0.01526 0.08275 -3.020363
2011-08-18 07:50:54 51°26.95 2°44.977 22.722 0.01526 0.082751 -3.020363
2011-08-18 07:50:59 51°26.966 2°44.964 22.7115 0.01526 0.082751 -3.020363
2011-08-18 07:51:03 51°26.978 2°44.954 22.7339 0.01526 0.082751 -3.020363
2011-08-18 07:51:08 51°26.994 2°44.942 22.7407 0.01526 0.082751 -3.020363
2011-08-18 07:51:14 51°27.014 2°44.927 22.7464 0.01526 0.082753 -3.020363
2011-08-18 07:51:19 51°27.03 2°44.914 22.7258 0.01526 0.082751 -3.020363
2011-08-18 07:51:23 51°27.042 2°44.904 22.727 0.01526 0.082753 -3.020363
2011-08-18 07:51:28 51°27.058 2°44.891 22.7346 0.01526 0.082753 -3.020363
2011-08-18 07:51:34 51°27.077 2°44.876 22.7301 0.01526 0.082753 -3.020363
2011-08-18 07:51:39 51°27.093 2°44.863 22.7382 0.01526 0.082753 -3.020363
2011-08-18 07:51:43 51°27.105 2°44.853 22.7339 0.01526 0.082753 -3.020363
2011-08-18 07:51:49 51°27.124 2°44.838 22.7258 0.01526 0.082753 -3.020363
2011-08-18 07:51:54 51°27.14 2°44.825 22.7522 0.01526 0.082753 -3.020363
2011-08-18 07:51:59 51°27.156 2°44.812 22.7476 0.01526 0.082753 -3.020363
2011-08-18 07:52:03 51°27.169 2°44.802 22.7278 0.01526 0.082754 -3.020363
2011-08-18 07:52:08 51°27.185 2°44.789 22.7367 0.01526 0.082754 -3.020363
2011-08-18 07:52:14 51°27.204 2°44.774 22.7504 0.01526 0.082754 -3.020363
2011-08-18 07:52:19 51°27.22 2°44.761 22.7372 0.01526 0.082756 -3.020363
2011-08-18 07:52:23 51°27.233 2°44.751 22.7479 0.01526 0.082754 -3.020363
2011-08-18 07:52:28 51°27.249 2°44.74 22.7501 0.01526 0.082754 -3.020363
2011-08-18 07:52:34 51°27.268 2°44.726 22.7444 0.01526 0.082755 -3.020363
2011-08-18 07:52:39 51°27.284 2°44.714 22.7478 0.01526 0.082755 -3.020363
2011-08-18 07:52:44 51°27.3 2°44.703 22.7591 0.01526 0.082755 -3.020363
2011-08-18 07:52:49 51°27.317 2°44.691 22.745 0.01526 0.082755 -3.020363
2011-08-18 07:52:54 51°27.333 2°44.679 22.7534 0.01526 0.082755 -3.020363
2011-08-18 07:52:59 51°27.349 2°44.668 22.7433 0.01526 0.082755 -3.020363
2011-08-18 07:53:03 51°27.362 2°44.659 22.7476 0.01526 0.082755 -3.020363
2011-08-18 07:53:08 51°27.378 2°44.647 22.7421 0.01526 0.082756 -3.020363
2011-08-18 07:53:14 51°27.398 2°44.633 22.7508 0.01526 0.082756 -3.020363
2011-08-18 07:53:19 51°27.414 2°44.621 22.7541 0.01526 0.082756 -3.020363
2011-08-18 07:53:23 51°27.427 2°44.612 22.7552 0.01526 0.082756 -3.020363
2011-08-18 07:53:28 51°27.443 2°44.601 22.7561 0.01526 0.082756 -3.020363
2011-08-18 07:53:34 51°27.462 2°44.587 22.7583 0.01526 0.082757 -3.020363
2011-08-18 07:53:39 51°27.479 2°44.575 22.7657 0.01526 0.082757 -3.020363
2011-08-18 07:53:43 51°27.492 2°44.566 22.7588 0.01526 0.082757 -3.020363
2011-08-18 07:53:48 51°27.508 2°44.555 22.7677 0.01526 0.082757 -3.020363
2011-08-18 07:53:53 51°27.524 2°44.543 22.759 0.01526 0.082757 -3.020363
2011-08-18 07:53:59 51°27.544 2°44.53 22.7695 0.01526 0.082757 -3.020363
2011-08-18 07:54:03 51°27.557 2°44.522 22.7721 0.01526 0.082759 -3.020363
2011-08-18 07:54:08 51°27.573 2°44.509 22.7572 0.01526 0.082759 -3.020363
2011-08-18 07:54:14 51°27.592 2°44.495 22.7614 0.01526 0.082757 -3.020363